Wetterdaten: Mittwoch, 10.08.2016
Datum Zeit Temp. A. Feuchte A. Luftdruck Regen Wind Richtung Richtung Sonnenschein ET UV Solar Taupunkt Windchill Windben Empfang
10.08.2016 00:00 13,9 C 96 % 1017,8 hPa 0,0 l/m 11,5 km/h (2 Bft) W-SW 238 0 min 0,000 mm 0,0 UV-I 0 W/m 13,3 C 11,2 C 16,1 km/h (3 Bft) 100,00 %
10.08.2016 00:02 13,9 C 96 % 1017,8 hPa 0,0 l/m 12,8 km/h (3 Bft) W 263 0 min 0,000 mm 0,0 UV-I 0 W/m 13,3 C 10,7 C 17,7 km/h (3 Bft) 100,00 %
10.08.2016 00:04 13,9 C 96 % 1017,7 hPa 0,0 l/m 11,7 km/h (2 Bft) W 260 0 min 0,000 mm 0,0 UV-I 0 W/m 13,3 C 11,1 C 17,7 km/h (3 Bft) 100,00 %
10.08.2016 00:06 13,8 C 96 % 1017,7 hPa 0,0 l/m 11,0 km/h (2 Bft) W 260 0 min 0,000 mm 0,0 UV-I 0 W/m 13,2 C 11,3 C 20,9 km/h (4 Bft) 98,28 %
10.08.2016 00:08 13,8 C 96 % 1017,8 hPa 0,0 l/m 14,3 km/h (3 Bft) W-SW 241 0 min 0,000 mm 0,0 UV-I 0 W/m 13,2 C 10,0 C 22,5 km/h (4 Bft) 100,00 %
10.08.2016 00:10 13,8 C 96 % 1017,8 hPa 0,0 l/m 13,4 km/h (3 Bft) W 270 0 min 0,000 mm 0,0 UV-I 0 W/m 13,2 C 10,3 C 20,9 km/h (4 Bft) 100,00 %
10.08.2016 00:12 13,8 C 96 % 1017,8 hPa 0,0 l/m 12,5 km/h (3 Bft) W-SW 248 0 min 0,000 mm 0,0 UV-I 0 W/m 13,2 C 10,7 C 19,3 km/h (3 Bft) 100,00 %
10.08.2016 00:14 13,8 C 96 % 1017,9 hPa 0,0 l/m 12,8 km/h (3 Bft) W 263 0 min 0,000 mm 0,0 UV-I 0 W/m 13,2 C 10,6 C 22,5 km/h (4 Bft) 100,00 %
10.08.2016 00:16 13,8 C 96 % 1017,9 hPa 0,2 l/m 14,3 km/h (3 Bft) W-SW 246 0 min 0,000 mm 0,0 UV-I 0 W/m 13,2 C 10,0 C 20,9 km/h (4 Bft) 100,00 %
10.08.2016 00:18 13,8 C 96 % 1017,9 hPa 0,0 l/m 11,4 km/h (2 Bft) W 271 0 min 0,000 mm 0,0 UV-I 0 W/m 13,2 C 11,1 C 16,1 km/h (3 Bft) 100,00 %
10.08.2016 00:20 13,8 C 96 % 1017,9 hPa 0,0 l/m 14,6 km/h (3 Bft) W 261 0 min 0,000 mm 0,0 UV-I 0 W/m 13,2 C 9,9 C 20,9 km/h (4 Bft) 98,00 %
10.08.2016 00:22 13,8 C 96 % 1017,9 hPa 0,0 l/m 8,8 km/h (2 Bft) W-SW 238 0 min 0,000 mm 0,0 UV-I 0 W/m 13,2 C 12,4 C 14,5 km/h (3 Bft) 100,00 %
10.08.2016 00:24 13,8 C 96 % 1017,9 hPa 0,0 l/m 12,9 km/h (3 Bft) W-SW 240 0 min 0,000 mm 0,0 UV-I 0 W/m 13,2 C 10,5 C 17,7 km/h (3 Bft) 100,00 %
10.08.2016 00:26 13,8 C 96 % 1017,9 hPa 0,0 l/m 13,1 km/h (3 Bft) W 267 0 min 0,000 mm 0,0 UV-I 0 W/m 13,2 C 10,4 C 19,3 km/h (3 Bft) 97,87 %
10.08.2016 00:28 13,8 C 96 % 1017,9 hPa 0,0 l/m 9,5 km/h (2 Bft) W 261 0 min 0,000 mm 0,0 UV-I 0 W/m 13,2 C 12,0 C 16,1 km/h (3 Bft) 100,00 %
10.08.2016 00:30 13,8 C 96 % 1017,9 hPa 0,0 l/m 11,1 km/h (2 Bft) SW 229 0 min 0,000 mm 0,0 UV-I 0 W/m 13,2 C 11,3 C 16,1 km/h (3 Bft) 100,00 %
10.08.2016 00:32 13,8 C 96 % 1017,9 hPa 0,0 l/m 9,5 km/h (2 Bft) SW 236 0 min 0,000 mm 0,0 UV-I 0 W/m 13,2 C 12,0 C 14,5 km/h (3 Bft) 100,00 %
10.08.2016 00:34 13,8 C 96 % 1017,9 hPa 0,0 l/m 8,1 km/h (2 Bft) W-SW 244 0 min 0,000 mm 0,0 UV-I 0 W/m 13,2 C 12,8 C 14,5 km/h (3 Bft) 98,21 %
10.08.2016 00:36 13,8 C 96 % 1017,9 hPa 0,0 l/m 8,8 km/h (2 Bft) SW 228 0 min 0,000 mm 0,0 UV-I 0 W/m 13,2 C 12,4 C 14,5 km/h (3 Bft) 95,45 %
10.08.2016 00:38 13,8 C 96 % 1017,9 hPa 0,0 l/m 11,7 km/h (2 Bft) W 262 0 min 0,000 mm 0,0 UV-I 0 W/m 13,2 C 11,0 C 16,1 km/h (3 Bft) 98,00 %
10.08.2016 00:40 13,8 C 96 % 1017,9 hPa 0,2 l/m 7,6 km/h (2 Bft) W-SW 246 0 min 0,000 mm 0,0 UV-I 0 W/m 13,2 C 13,1 C 12,9 km/h (3 Bft) 100,00 %
10.08.2016 00:42 13,8 C 96 % 1017,9 hPa 0,0 l/m 7,3 km/h (2 Bft) SW 227 0 min 0,000 mm 0,0 UV-I 0 W/m 13,2 C 13,3 C 12,9 km/h (3 Bft) 100,00 %
10.08.2016 00:44 13,8 C 96 % 1017,9 hPa 0,0 l/m 9,3 km/h (2 Bft) SW 232 0 min 0,000 mm 0,0 UV-I 0 W/m 13,2 C 12,1 C 12,9 km/h (3 Bft) 98,00 %
10.08.2016 00:46 13,8 C 96 % 1017,8 hPa 0,0 l/m 6,4 km/h (2 Bft) W-SW 238 0 min 0,000 mm 0,0 UV-I 0 W/m 13,2 C 13,8 C 11,3 km/h (2 Bft) 100,00 %
10.08.2016 00:48 13,8 C 96 % 1017,8 hPa 0,0 l/m 7,9 km/h (2 Bft) SW 224 0 min 0,000 mm 0,0 UV-I 0 W/m 13,2 C 12,9 C 11,3 km/h (2 Bft) 100,00 %
10.08.2016 00:50 13,8 C 96 % 1017,8 hPa 0,0 l/m 7,2 km/h (2 Bft) SW 234 0 min 0,000 mm 0,0 UV-I 0 W/m 13,2 C 13,3 C 12,9 km/h (3 Bft) 100,00 %
10.08.2016 00:52 13,8 C 96 % 1017,8 hPa 0,0 l/m 8,1 km/h (2 Bft) SW 236 0 min 0,000 mm 0,0 UV-I 0 W/m 13,2 C 12,8 C 12,9 km/h (3 Bft) 100,00 %
10.08.2016 00:54 13,8 C 96 % 1017,9 hPa 0,0 l/m 10,4 km/h (2 Bft) W-SW 238 0 min 0,000 mm 0,0 UV-I 0 W/m 13,2 C 11,6 C 16,1 km/h (3 Bft) 100,00 %
10.08.2016 00:56 13,7 C 96 % 1017,8 hPa 0,0 l/m 8,2 km/h (2 Bft) W-SW 244 0 min 0,000 mm 0,0 UV-I 0 W/m 13,1 C 12,6 C 12,9 km/h (3 Bft) 100,00 %
10.08.2016 00:58 13,7 C 96 % 1017,8 hPa 0,0 l/m 10,5 km/h (2 Bft) SW 236 0 min 0,000 mm 0,0 UV-I 0 W/m 13,1 C 11,4 C 19,3 km/h (3 Bft) 100,00 %
10.08.2016 01:00 13,7 C 96 % 1017,8 hPa 0,2 l/m 11,4 km/h (2 Bft) W-SW 242 0 min 0,000 mm 0,0 UV-I 0 W/m 13,1 C 11,0 C 17,7 km/h (3 Bft) 97,14 %
10.08.2016 01:02 13,7 C 96 % 1017,8 hPa 0,0 l/m 8,0 km/h (2 Bft) S-SW 212 0 min 0,000 mm 0,0 UV-I 0 W/m 13,1 C 12,7 C 16,1 km/h (3 Bft) 100,00 %
10.08.2016 01:04 13,7 C 96 % 1017,8 hPa 0,0 l/m 9,1 km/h (2 Bft) W-SW 253 0 min 0,000 mm 0,0 UV-I 0 W/m 13,1 C 12,1 C 14,5 km/h (3 Bft) 100,00 %
10.08.2016 01:06 13,7 C 96 % 1017,8 hPa 0,0 l/m 12,0 km/h (2 Bft) W-SW 244 0 min 0,000 mm 0,0 UV-I 0 W/m 13,1 C 10,8 C 16,1 km/h (3 Bft) 100,00 %
10.08.2016 01:08 13,7 C 96 % 1017,8 hPa 0,0 l/m 7,8 km/h (2 Bft) SW 229 0 min 0,000 mm 0,0 UV-I 0 W/m 13,1 C 12,9 C 12,9 km/h (3 Bft) 100,00 %
10.08.2016 01:10 13,7 C 96 % 1017,9 hPa 0,0 l/m 10,4 km/h (2 Bft) SW 223 0 min 0,000 mm 0,0 UV-I 0 W/m 13,1 C 11,5 C 17,7 km/h (3 Bft) 96,00 %
10.08.2016 01:12 13,6 C 96 % 1017,8 hPa 0,0 l/m 11,3 km/h (2 Bft) SW 225 0 min 0,000 mm 0,0 UV-I 0 W/m 13,0 C 11,0 C 16,1 km/h (3 Bft) 97,37 %
10.08.2016 01:14 13,6 C 96 % 1017,9 hPa 0,0 l/m 11,6 km/h (2 Bft) SW 234 0 min 0,000 mm 0,0 UV-I 0 W/m 13,0 C 10,8 C 16,1 km/h (3 Bft) 98,00 %
10.08.2016 01:16 13,6 C 96 % 1017,9 hPa 0,2 l/m 11,3 km/h (2 Bft) SW 232 0 min 0,000 mm 0,0 UV-I 0 W/m 13,0 C 11,0 C 16,1 km/h (3 Bft) 97,56 %
10.08.2016 01:18 13,6 C 96 % 1017,9 hPa 0,0 l/m 12,2 km/h (2 Bft) SW 236 0 min 0,000 mm 0,0 UV-I 0 W/m 13,0 C 10,6 C 17,7 km/h (3 Bft) 98,11 %
10.08.2016 01:20 13,5 C 96 % 1017,8 hPa 0,0 l/m 11,2 km/h (2 Bft) SW 227 0 min 0,000 mm 0,0 UV-I 0 W/m 12,9 C 10,9 C 16,1 km/h (3 Bft) 97,44 %
10.08.2016 01:22 13,5 C 96 % 1017,9 hPa 0,0 l/m 11,9 km/h (2 Bft) S-SW 212 0 min 0,000 mm 0,0 UV-I 0 W/m 12,9 C 10,6 C 17,7 km/h (3 Bft) 98,11 %
10.08.2016 01:24 13,4 C 96 % 1017,9 hPa 0,0 l/m 12,3 km/h (3 Bft) SW 224 0 min 0,000 mm 0,0 UV-I 0 W/m 12,8 C 10,3 C 17,7 km/h (3 Bft) 97,96 %
10.08.2016 01:26 13,4 C 96 % 1017,8 hPa 0,0 l/m 12,0 km/h (2 Bft) W 261 0 min 0,000 mm 0,0 UV-I 0 W/m 12,8 C 10,4 C 20,9 km/h (4 Bft) 96,00 %
10.08.2016 01:28 13,4 C 96 % 1017,9 hPa 0,0 l/m 11,3 km/h (2 Bft) SW 223 0 min 0,000 mm 0,0 UV-I 0 W/m 12,8 C 10,7 C 17,7 km/h (3 Bft) 100,00 %
10.08.2016 01:30 13,3 C 96 % 1018,0 hPa 0,0 l/m 15,2 km/h (3 Bft) S-SW 203 0 min 0,000 mm 0,0 UV-I 0 W/m 12,7 C 9,1 C 20,9 km/h (4 Bft) 95,45 %
10.08.2016 01:32 13,3 C 96 % 1017,9 hPa 0,2 l/m 12,9 km/h (3 Bft) SW 236 0 min 0,000 mm 0,0 UV-I 0 W/m 12,7 C 9,9 C 17,7 km/h (3 Bft) 98,11 %
10.08.2016 01:34 13,3 C 96 % 1018,0 hPa 0,0 l/m 11,8 km/h (2 Bft) SW 223 0 min 0,000 mm 0,0 UV-I 0 W/m 12,7 C 10,4 C 16,1 km/h (3 Bft) 98,11 %
10.08.2016 01:36 13,3 C 96 % 1017,9 hPa 0,0 l/m 10,4 km/h (2 Bft) SW 219 0 min 0,000 mm 0,0 UV-I 0 W/m 12,7 C 11,0 C 16,1 km/h (3 Bft) 92,68 %
10.08.2016 01:38 13,3 C 96 % 1017,9 hPa 0,0 l/m 11,8 km/h (2 Bft) SW 226 0 min 0,000 mm 0,0 UV-I 0 W/m 12,7 C 10,4 C 17,7 km/h (3 Bft) 97,87 %
10.08.2016 01:40 13,3 C 96 % 1017,9 hPa 0,0 l/m 12,1 km/h (2 Bft) SW 225 0 min 0,000 mm 0,0 UV-I 0 W/m 12,7 C 10,3 C 19,3 km/h (3 Bft) 98,00 %
10.08.2016 01:42 13,3 C 96 % 1017,9 hPa 0,0 l/m 13,7 km/h (3 Bft) W-SW 252 0 min 0,000 mm 0,0 UV-I 0 W/m 12,7 C 9,6 C 22,5 km/h (4 Bft) 97,87 %
10.08.2016 01:44 13,3 C 96 % 1017,9 hPa 0,0 l/m 10,1 km/h (2 Bft) W-SW 254 0 min 0,000 mm 0,0 UV-I 0 W/m 12,7 C 11,2 C 22,5 km/h (4 Bft) 100,00 %
10.08.2016 01:46 13,2 C 96 % 1017,9 hPa 0,0 l/m 13,9 km/h (3 Bft) W 262 0 min 0,000 mm 0,0 UV-I 0 W/m 12,6 C 9,4 C 19,3 km/h (3 Bft) 96,00 %
10.08.2016 01:48 13,2 C 96 % 1017,9 hPa 0,0 l/m 10,9 km/h (2 Bft) SW 216 0 min 0,000 mm 0,0 UV-I 0 W/m 12,6 C 10,7 C 17,7 km/h (3 Bft) 100,00 %
10.08.2016 01:50 13,2 C 96 % 1017,9 hPa 0,0 l/m 8,8 km/h (2 Bft) SW 229 0 min 0,000 mm 0,0 UV-I 0 W/m 12,6 C 11,8 C 14,5 km/h (3 Bft) 98,21 %
10.08.2016 01:52 13,2 C 96 % 1017,9 hPa 0,0 l/m 8,2 km/h (2 Bft) SW 223 0 min 0,000 mm 0,0 UV-I 0 W/m 12,6 C 12,1 C 16,1 km/h (3 Bft) 100,00 %
10.08.2016 01:54 13,2 C 96 % 1017,9 hPa 0,0 l/m 11,8 km/h (2 Bft) W-SW 250 0 min 0,000 mm 0,0 UV-I 0 W/m 12,6 C 10,3 C 16,1 km/h (3 Bft) 100,00 %
10.08.2016 01:56 13,1 C 96 % 1017,8 hPa 0,0 l/m 9,3 km/h (2 Bft) W-SW 252 0 min 0,000 mm 0,0 UV-I 0 W/m 12,5 C 11,4 C 14,5 km/h (3 Bft) 100,00 %
10.08.2016 01:58 13,1 C 96 % 1017,8 hPa 0,2 l/m 9,6 km/h (2 Bft) SW 229 0 min 0,000 mm 0,0 UV-I 0 W/m 12,5 C 11,2 C 14,5 km/h (3 Bft) 100,00 %
10.08.2016 02:00 13,1 C 96 % 1017,9 hPa 0,0 l/m 8,1 km/h (2 Bft) W-SW 246 0 min 0,000 mm 0,0 UV-I 0 W/m 12,5 C 12,0 C 12,9 km/h (3 Bft) 97,44 %
10.08.2016 02:02 13,0 C 96 % 1017,9 hPa 0,2 l/m 8,2 km/h (2 Bft) S-SW 212 0 min 0,000 mm 0,0 UV-I 0 W/m 12,4 C 11,9 C 12,9 km/h (3 Bft) 98,11 %
10.08.2016 02:04 13,0 C 96 % 1017,8 hPa 0,0 l/m 9,7 km/h (2 Bft) W-SW 246 0 min 0,000 mm 0,0 UV-I 0 W/m 12,4 C 11,1 C 14,5 km/h (3 Bft) 100,00 %
10.08.2016 02:06 13,0 C 96 % 1017,8 hPa 0,0 l/m 8,4 km/h (2 Bft) W-SW 251 0 min 0,000 mm 0,0 UV-I 0 W/m 12,4 C 11,8 C 14,5 km/h (3 Bft) 100,00 %
10.08.2016 02:08 12,9 C 96 % 1017,8 hPa 0,0 l/m 6,8 km/h (2 Bft) SW 219 0 min 0,000 mm 0,0 UV-I 0 W/m 12,3 C 12,7 C 11,3 km/h (2 Bft) 100,00 %
10.08.2016 02:10 12,9 C 96 % 1017,7 hPa 0,2 l/m 9,0 km/h (2 Bft) W 263 0 min 0,000 mm 0,0 UV-I 0 W/m 12,3 C 11,3 C 14,5 km/h (3 Bft) 100,00 %
10.08.2016 02:12 12,9 C 96 % 1017,8 hPa 0,0 l/m 4,8 km/h (1 Bft) W-SW 242 0 min 0,000 mm 0,0 UV-I 0 W/m 12,3 C 12,9 C 9,7 km/h (2 Bft) 98,00 %
10.08.2016 02:14 12,9 C 96 % 1017,8 hPa 0,0 l/m 10,2 km/h (2 Bft) W-SW 252 0 min 0,000 mm 0,0 UV-I 0 W/m 12,3 C 10,7 C 17,7 km/h (3 Bft) 98,00 %
10.08.2016 02:16 12,9 C 96 % 1017,7 hPa 0,0 l/m 8,8 km/h (2 Bft) W-SW 247 0 min 0,000 mm 0,0 UV-I 0 W/m 12,3 C 11,4 C 14,5 km/h (3 Bft) 100,00 %
10.08.2016 02:18 12,9 C 96 % 1017,7 hPa 0,0 l/m 9,1 km/h (2 Bft) W-SW 252 0 min 0,000 mm 0,0 UV-I 0 W/m 12,3 C 11,3 C 14,5 km/h (3 Bft) 100,00 %
10.08.2016 02:20 12,8 C 96 % 1017,7 hPa 0,0 l/m 8,2 km/h (2 Bft) SW 221 0 min 0,000 mm 0,0 UV-I 0 W/m 12,2 C 11,7 C 14,5 km/h (3 Bft) 100,00 %
10.08.2016 02:22 12,8 C 96 % 1017,7 hPa 0,0 l/m 7,4 km/h (2 Bft) W-SW 245 0 min 0,000 mm 0,0 UV-I 0 W/m 12,2 C 12,2 C 11,3 km/h (2 Bft) 100,00 %
10.08.2016 02:24 12,8 C 96 % 1017,7 hPa 0,0 l/m 7,1 km/h (2 Bft) SW 236 0 min 0,000 mm 0,0 UV-I 0 W/m 12,2 C 12,4 C 12,9 km/h (3 Bft) 100,00 %
10.08.2016 02:26 12,8 C 96 % 1017,6 hPa 0,0 l/m 7,9 km/h (2 Bft) SW 232 0 min 0,000 mm 0,0 UV-I 0 W/m 12,2 C 11,9 C 11,3 km/h (2 Bft) 100,00 %
10.08.2016 02:28 12,8 C 96 % 1017,6 hPa 0,2 l/m 6,4 km/h (2 Bft) SW 221 0 min 0,000 mm 0,0 UV-I 0 W/m 12,2 C 12,8 C 9,7 km/h (2 Bft) 100,00 %
10.08.2016 02:30 12,8 C 96 % 1017,7 hPa 0,0 l/m 7,7 km/h (2 Bft) W-SW 243 0 min 0,000 mm 0,0 UV-I 0 W/m 12,2 C 12,0 C 11,3 km/h (2 Bft) 97,56 %
10.08.2016 02:32 12,8 C 96 % 1017,7 hPa 0,0 l/m 7,2 km/h (2 Bft) SW 236 0 min 0,000 mm 0,0 UV-I 0 W/m 12,2 C 12,3 C 12,9 km/h (3 Bft) 100,00 %
10.08.2016 02:34 12,8 C 96 % 1017,7 hPa 0,0 l/m 7,6 km/h (2 Bft) SW 217 0 min 0,000 mm 0,0 UV-I 0 W/m 12,2 C 12,0 C 14,5 km/h (3 Bft) 100,00 %
10.08.2016 02:36 12,8 C 96 % 1017,7 hPa 0,0 l/m 8,0 km/h (2 Bft) SW 230 0 min 0,000 mm 0,0 UV-I 0 W/m 12,2 C 11,8 C 11,3 km/h (2 Bft) 100,00 %
10.08.2016 02:38 12,8 C 96 % 1017,7 hPa 0,0 l/m 7,6 km/h (2 Bft) SW 229 0 min 0,000 mm 0,0 UV-I 0 W/m 12,2 C 12,0 C 12,9 km/h (3 Bft) 100,00 %
10.08.2016 02:40 12,8 C 96 % 1017,6 hPa 0,0 l/m 6,4 km/h (2 Bft) W-SW 250 0 min 0,000 mm 0,0 UV-I 0 W/m 12,2 C 12,8 C 11,3 km/h (2 Bft) 98,11 %
10.08.2016 02:42 12,7 C 96 % 1017,6 hPa 0,0 l/m 7,0 km/h (2 Bft) SW 227 0 min 0,000 mm 0,0 UV-I 0 W/m 12,1 C 12,3 C 11,3 km/h (2 Bft) 100,00 %
10.08.2016 02:44 12,7 C 96 % 1017,6 hPa 0,0 l/m 7,3 km/h (2 Bft) SW 219 0 min 0,000 mm 0,0 UV-I 0 W/m 12,1 C 12,1 C 12,9 km/h (3 Bft) 95,24 %
10.08.2016 02:46 12,7 C 96 % 1017,6 hPa 0,0 l/m 6,1 km/h (2 Bft) W-SW 242 0 min 0,000 mm 0,0 UV-I 0 W/m 12,1 C 12,7 C 11,3 km/h (2 Bft) 100,00 %
10.08.2016 02:48 12,7 C 96 % 1017,6 hPa 0,0 l/m 8,2 km/h (2 Bft) SW 226 0 min 0,000 mm 0,0 UV-I 0 W/m 12,1 C 11,6 C 12,9 km/h (3 Bft) 100,00 %
10.08.2016 02:50 12,7 C 96 % 1017,6 hPa 0,0 l/m 8,3 km/h (2 Bft) SW 234 0 min 0,000 mm 0,0 UV-I 0 W/m 12,1 C 11,5 C 14,5 km/h (3 Bft) 100,00 %
10.08.2016 02:52 12,7 C 96 % 1017,6 hPa 0,0 l/m 7,3 km/h (2 Bft) S 185 0 min 0,000 mm 0,0 UV-I 0 W/m 12,1 C 12,1 C 12,9 km/h (3 Bft) 100,00 %
10.08.2016 02:54 12,7 C 96 % 1017,6 hPa 0,0 l/m 8,2 km/h (2 Bft) SW 235 0 min 0,000 mm 0,0 UV-I 0 W/m 12,1 C 11,6 C 12,9 km/h (3 Bft) 100,00 %
10.08.2016 02:56 12,7 C 96 % 1017,6 hPa 0,0 l/m 6,0 km/h (2 Bft) S-SW 209 0 min 0,000 mm 0,0 UV-I 0 W/m 12,1 C 12,7 C 9,7 km/h (2 Bft) 100,00 %
10.08.2016 02:58 12,7 C 96 % 1017,6 hPa 0,0 l/m 6,5 km/h (2 Bft) S-SW 210 0 min 0,000 mm 0,0 UV-I 0 W/m 12,1 C 12,7 C 12,9 km/h (3 Bft) 100,00 %
10.08.2016 03:00 12,7 C 96 % 1017,5 hPa 0,0 l/m 7,8 km/h (2 Bft) S 174 0 min 0,000 mm 0,0 UV-I 0 W/m 12,1 C 11,8 C 12,9 km/h (3 Bft) 100,00 %
10.08.2016 03:02 12,7 C 96 % 1017,5 hPa 0,0 l/m 6,4 km/h (2 Bft) SW 221 0 min 0,000 mm 0,0 UV-I 0 W/m 12,1 C 12,7 C 12,9 km/h (3 Bft) 100,00 %
10.08.2016 03:04 12,6 C 96 % 1017,5 hPa 0,0 l/m 7,1 km/h (2 Bft) W-SW 246 0 min 0,000 mm 0,0 UV-I 0 W/m 12,0 C 12,2 C 11,3 km/h (2 Bft) 100,00 %
10.08.2016 03:06 12,6 C 96 % 1017,6 hPa 0,0 l/m 7,5 km/h (2 Bft) SW 215 0 min 0,000 mm 0,0 UV-I 0 W/m 12,0 C 11,9 C 12,9 km/h (3 Bft) 98,39 %
10.08.2016 03:08 12,5 C 95 % 1017,6 hPa 0,0 l/m 5,7 km/h (1 Bft) S 184 0 min 0,000 mm 0,0 UV-I 0 W/m 11,7 C 12,5 C 9,7 km/h (2 Bft) 100,00 %
10.08.2016 03:10 12,4 C 95 % 1017,6 hPa 0,0 l/m 6,3 km/h (2 Bft) S-SW 205 0 min 0,000 mm 0,0 UV-I 0 W/m 11,6 C 12,4 C 11,3 km/h (2 Bft) 97,37 %
10.08.2016 03:12 12,4 C 95 % 1017,5 hPa 0,0 l/m 7,1 km/h (2 Bft) SW 236 0 min 0,000 mm 0,0 UV-I 0 W/m 11,6 C 11,9 C 11,3 km/h (2 Bft) 97,87 %
10.08.2016 03:14 12,4 C 95 % 1017,5 hPa 0,0 l/m 6,9 km/h (2 Bft) SW 234 0 min 0,000 mm 0,0 UV-I 0 W/m 11,6 C 12,1 C 12,9 km/h (3 Bft) 96,00 %
10.08.2016 03:16 12,3 C 95 % 1017,5 hPa 0,0 l/m 7,7 km/h (2 Bft) S 190 0 min 0,000 mm 0,0 UV-I 0 W/m 11,5 C 11,5 C 12,9 km/h (3 Bft) 95,12 %
10.08.2016 03:18 12,3 C 95 % 1017,5 hPa 0,0 l/m 5,9 km/h (2 Bft) SW 236 0 min 0,000 mm 0,0 UV-I 0 W/m 11,5 C 12,3 C 11,3 km/h (2 Bft) 96,00 %
10.08.2016 03:20 12,3 C 95 % 1017,5 hPa 0,0 l/m 7,3 km/h (2 Bft) SW 214 0 min 0,000 mm 0,0 UV-I 0 W/m 11,5 C 11,7 C 11,3 km/h (2 Bft) 96,00 %
10.08.2016 03:22 12,3 C 94 % 1017,5 hPa 0,0 l/m 6,2 km/h (2 Bft) S-SW 209 0 min 0,000 mm 0,0 UV-I 0 W/m 11,4 C 12,3 C 8,0 km/h (2 Bft) 97,22 %
10.08.2016 03:24 12,3 C 94 % 1017,5 hPa 0,0 l/m 5,6 km/h (1 Bft) S 188 0 min 0,000 mm 0,0 UV-I 0 W/m 11,4 C 12,3 C 9,7 km/h (2 Bft) 98,11 %
10.08.2016 03:26 12,3 C 94 % 1017,4 hPa 0,0 l/m 6,5 km/h (2 Bft) SW 227 0 min 0,000 mm 0,0 UV-I 0 W/m 11,4 C 12,3 C 9,7 km/h (2 Bft) 97,87 %
10.08.2016 03:28 12,3 C 94 % 1017,5 hPa 0,0 l/m 6,7 km/h (2 Bft) SW 234 0 min 0,000 mm 0,0 UV-I 0 W/m 11,4 C 12,1 C 9,7 km/h (2 Bft) 98,00 %
10.08.2016 03:30 12,3 C 94 % 1017,4 hPa 0,0 l/m 5,9 km/h (2 Bft) S 178 0 min 0,000 mm 0,0 UV-I 0 W/m 11,4 C 12,3 C 9,7 km/h (2 Bft) 97,73 %
10.08.2016 03:32 12,3 C 94 % 1017,5 hPa 0,0 l/m 6,9 km/h (2 Bft) S-SW 210 0 min 0,000 mm 0,0 UV-I 0 W/m 11,4 C 12,0 C 12,9 km/h (3 Bft) 95,45 %
10.08.2016 03:34 12,3 C 94 % 1017,4 hPa 0,0 l/m 7,7 km/h (2 Bft) S-SW 211 0 min 0,000 mm 0,0 UV-I 0 W/m 11,4 C 11,5 C 11,3 km/h (2 Bft) 98,00 %
10.08.2016 03:36 12,2 C 94 % 1017,5 hPa 0,0 l/m 7,4 km/h (2 Bft) SW 227 0 min 0,000 mm 0,0 UV-I 0 W/m 11,3 C 11,5 C 14,5 km/h (3 Bft) 96,00 %
10.08.2016 03:38 12,3 C 94 % 1017,4 hPa 0,0 l/m 6,7 km/h (2 Bft) S-SW 192 0 min 0,000 mm 0,0 UV-I 0 W/m 11,4 C 12,1 C 11,3 km/h (2 Bft) 98,00 %
10.08.2016 03:40 12,2 C 94 % 1017,4 hPa 0,0 l/m 5,9 km/h (2 Bft) S-SW 202 0 min 0,000 mm 0,0 UV-I 0 W/m 11,3 C 12,2 C 9,7 km/h (2 Bft) 98,00 %
10.08.2016 03:42 12,2 C 94 % 1017,4 hPa 0,2 l/m 6,8 km/h (2 Bft) S-SW 200 0 min 0,000 mm 0,0 UV-I 0 W/m 11,3 C 11,9 C 11,3 km/h (2 Bft) 97,73 %
10.08.2016 03:44 12,2 C 94 % 1017,4 hPa 0,0 l/m 6,6 km/h (2 Bft) W-SW 238 0 min 0,000 mm 0,0 UV-I 0 W/m 11,3 C 12,1 C 11,3 km/h (2 Bft) 97,56 %
10.08.2016 03:46 12,2 C 94 % 1017,4 hPa 0,0 l/m 6,5 km/h (2 Bft) SW 229 0 min 0,000 mm 0,0 UV-I 0 W/m 11,3 C 12,2 C 9,7 km/h (2 Bft) 100,00 %
10.08.2016 03:48 12,2 C 94 % 1017,4 hPa 0,0 l/m 6,6 km/h (2 Bft) W-SW 239 0 min 0,000 mm 0,0 UV-I 0 W/m 11,3 C 12,1 C 12,9 km/h (3 Bft) 100,00 %
10.08.2016 03:50 12,2 C 94 % 1017,3 hPa 0,0 l/m 7,6 km/h (2 Bft) S-SW 192 0 min 0,000 mm 0,0 UV-I 0 W/m 11,3 C 11,4 C 12,9 km/h (3 Bft) 95,74 %
10.08.2016 03:52 12,2 C 94 % 1017,2 hPa 0,0 l/m 6,3 km/h (2 Bft) S 190 0 min 0,000 mm 0,0 UV-I 0 W/m 11,3 C 12,2 C 8,0 km/h (2 Bft) 100,00 %
10.08.2016 03:54 12,3 C 94 % 1017,2 hPa 0,0 l/m 6,4 km/h (2 Bft) SW 219 0 min 0,000 mm 0,0 UV-I 0 W/m 11,4 C 12,3 C 12,9 km/h (3 Bft) 97,73 %
10.08.2016 03:56 12,2 C 94 % 1017,2 hPa 0,0 l/m 8,2 km/h (2 Bft) S-SW 207 0 min 0,000 mm 0,0 UV-I 0 W/m 11,3 C 11,0 C 12,9 km/h (3 Bft) 100,00 %
10.08.2016 03:58 12,2 C 93 % 1017,3 hPa 0,0 l/m 7,4 km/h (2 Bft) S 186 0 min 0,000 mm 0,0 UV-I 0 W/m 11,1 C 11,5 C 11,3 km/h (2 Bft) 100,00 %
10.08.2016 04:00 12,2 C 94 % 1017,2 hPa 0,0 l/m 5,9 km/h (2 Bft) SW 229 0 min 0,000 mm 0,0 UV-I 0 W/m 11,3 C 12,2 C 9,7 km/h (2 Bft) 100,00 %
10.08.2016 04:02 12,3 C 94 % 1017,3 hPa 0,0 l/m 6,9 km/h (2 Bft) W-SW 240 0 min 0,000 mm 0,0 UV-I 0 W/m 11,4 C 12,0 C 11,3 km/h (2 Bft) 100,00 %
10.08.2016 04:04 12,3 C 94 % 1017,2 hPa 0,0 l/m 6,3 km/h (2 Bft) W-SW 252 0 min 0,000 mm 0,0 UV-I 0 W/m 11,4 C 12,3 C 9,7 km/h (2 Bft) 100,00 %
10.08.2016 04:06 12,3 C 94 % 1017,3 hPa 0,0 l/m 6,3 km/h (2 Bft) W-SW 239 0 min 0,000 mm 0,0 UV-I 0 W/m 11,4 C 12,3 C 9,7 km/h (2 Bft) 100,00 %
10.08.2016 04:08 12,3 C 94 % 1017,3 hPa 0,0 l/m 6,3 km/h (2 Bft) SW 229 0 min 0,000 mm 0,0 UV-I 0 W/m 11,4 C 12,3 C 9,7 km/h (2 Bft) 98,00 %
10.08.2016 04:10 12,3 C 94 % 1017,3 hPa 0,0 l/m 5,2 km/h (1 Bft) W-SW 249 0 min 0,000 mm 0,0 UV-I 0 W/m 11,4 C 12,3 C 8,0 km/h (2 Bft) 97,37 %
10.08.2016 04:12 12,3 C 95 % 1017,3 hPa 0,0 l/m 7,2 km/h (2 Bft) SW 234 0 min 0,000 mm 0,0 UV-I 0 W/m 11,5 C 11,8 C 12,9 km/h (3 Bft) 100,00 %
10.08.2016 04:14 12,3 C 95 % 1017,3 hPa 0,0 l/m 5,4 km/h (1 Bft) W-SW 237 0 min 0,000 mm 0,0 UV-I 0 W/m 11,5 C 12,3 C 8,0 km/h (2 Bft) 100,00 %
10.08.2016 04:16 12,3 C 95 % 1017,2 hPa 0,0 l/m 5,8 km/h (2 Bft) SW 224 0 min 0,000 mm 0,0 UV-I 0 W/m 11,5 C 12,3 C 9,7 km/h (2 Bft) 100,00 %
10.08.2016 04:18 12,3 C 95 % 1017,2 hPa 0,0 l/m 5,4 km/h (1 Bft) W-SW 253 0 min 0,000 mm 0,0 UV-I 0 W/m 11,5 C 12,3 C 8,0 km/h (2 Bft) 100,00 %
10.08.2016 04:20 12,3 C 95 % 1017,2 hPa 0,0 l/m 6,7 km/h (2 Bft) W-SW 244 0 min 0,000 mm 0,0 UV-I 0 W/m 11,5 C 12,1 C 12,9 km/h (3 Bft) 100,00 %
10.08.2016 04:22 12,3 C 95 % 1017,2 hPa 0,2 l/m 7,3 km/h (2 Bft) SW 228 0 min 0,000 mm 0,0 UV-I 0 W/m 11,5 C 11,7 C 11,3 km/h (2 Bft) 100,00 %
10.08.2016 04:24 12,3 C 95 % 1017,2 hPa 0,0 l/m 6,9 km/h (2 Bft) W-SW 238 0 min 0,000 mm 0,0 UV-I 0 W/m 11,5 C 12,0 C 11,3 km/h (2 Bft) 100,00 %
10.08.2016 04:26 12,3 C 95 % 1017,1 hPa 0,0 l/m 5,9 km/h (2 Bft) SW 232 0 min 0,000 mm 0,0 UV-I 0 W/m 11,5 C 12,3 C 11,3 km/h (2 Bft) 100,00 %
10.08.2016 04:28 12,3 C 95 % 1017,1 hPa 0,0 l/m 7,0 km/h (2 Bft) W-SW 242 0 min 0,000 mm 0,0 UV-I 0 W/m 11,5 C 11,9 C 11,3 km/h (2 Bft) 100,00 %
10.08.2016 04:30 12,3 C 95 % 1017,1 hPa 0,0 l/m 4,3 km/h (1 Bft) W-SW 243 0 min 0,000 mm 0,0 UV-I 0 W/m 11,5 C 12,3 C 8,0 km/h (2 Bft) 100,00 %
10.08.2016 04:32 12,4 C 95 % 1017,0 hPa 0,0 l/m 3,6 km/h (1 Bft) SW 217 0 min 0,000 mm 0,0 UV-I 0 W/m 11,6 C 12,4 C 4,8 km/h (1 Bft) 100,00 %
10.08.2016 04:34 12,3 C 95 % 1017,0 hPa 0,0 l/m 4,2 km/h (1 Bft) SW 233 0 min 0,000 mm 0,0 UV-I 0 W/m 11,5 C 12,3 C 6,4 km/h (2 Bft) 100,00 %
10.08.2016 04:36 12,3 C 95 % 1017,0 hPa 0,0 l/m 4,7 km/h (1 Bft) W-SW 242 0 min 0,000 mm 0,0 UV-I 0 W/m 11,5 C 12,3 C 8,0 km/h (2 Bft) 97,87 %
10.08.2016 04:38 12,3 C 95 % 1017,0 hPa 0,0 l/m 5,8 km/h (2 Bft) W-SW 246 0 min 0,000 mm 0,0 UV-I 0 W/m 11,5 C 12,3 C 9,7 km/h (2 Bft) 100,00 %
10.08.2016 04:40 12,3 C 95 % 1017,0 hPa 0,0 l/m 3,6 km/h (1 Bft) SW 226 0 min 0,000 mm 0,0 UV-I 0 W/m 11,5 C 12,3 C 4,8 km/h (1 Bft) 100,00 %
10.08.2016 04:42 12,3 C 95 % 1017,0 hPa 0,0 l/m 4,2 km/h (1 Bft) SW 236 0 min 0,000 mm 0,0 UV-I 0 W/m 11,5 C 12,3 C 6,4 km/h (2 Bft) 100,00 %
10.08.2016 04:44 12,3 C 95 % 1017,0 hPa 0,0 l/m 4,5 km/h (1 Bft) SW 228 0 min 0,000 mm 0,0 UV-I 0 W/m 11,5 C 12,3 C 8,0 km/h (2 Bft) 100,00 %
10.08.2016 04:46 12,3 C 95 % 1016,9 hPa 0,0 l/m 5,0 km/h (1 Bft) S-SW 209 0 min 0,000 mm 0,0 UV-I 0 W/m 11,5 C 12,3 C 6,4 km/h (2 Bft) 100,00 %
10.08.2016 04:48 12,3 C 95 % 1016,9 hPa 0,0 l/m 4,9 km/h (1 Bft) S-SW 193 0 min 0,000 mm 0,0 UV-I 0 W/m 11,5 C 12,3 C 8,0 km/h (2 Bft) 95,74 %
10.08.2016 04:50 12,3 C 95 % 1016,9 hPa 0,0 l/m 6,4 km/h (2 Bft) S-SW 202 0 min 0,000 mm 0,0 UV-I 0 W/m 11,5 C 12,3 C 9,7 km/h (2 Bft) 100,00 %
10.08.2016 04:52 12,3 C 95 % 1016,8 hPa 0,0 l/m 5,5 km/h (1 Bft) SW 232 0 min 0,000 mm 0,0 UV-I 0 W/m 11,5 C 12,3 C 8,0 km/h (2 Bft) 100,00 %
10.08.2016 04:54 12,3 C 95 % 1016,8 hPa 0,0 l/m 3,9 km/h (1 Bft) S-SW 193 0 min 0,000 mm 0,0 UV-I 0 W/m 11,5 C 12,3 C 6,4 km/h (2 Bft) 100,00 %
10.08.2016 04:56 12,2 C 95 % 1016,7 hPa 0,0 l/m 3,5 km/h (1 Bft) SW 223 0 min 0,000 mm 0,0 UV-I 0 W/m 11,4 C 12,2 C 6,4 km/h (2 Bft) 100,00 %
10.08.2016 04:58 12,2 C 95 % 1016,8 hPa 0,0 l/m 4,1 km/h (1 Bft) SW 236 0 min 0,000 mm 0,0 UV-I 0 W/m 11,4 C 12,2 C 6,4 km/h (2 Bft) 100,00 %
10.08.2016 05:00 12,2 C 95 % 1016,7 hPa 0,0 l/m 3,9 km/h (1 Bft) S-SW 195 0 min 0,000 mm 0,0 UV-I 0 W/m 11,4 C 12,2 C 6,4 km/h (2 Bft) 97,87 %
10.08.2016 05:02 12,2 C 95 % 1016,8 hPa 0,0 l/m 3,6 km/h (1 Bft) SW 221 0 min 0,000 mm 0,0 UV-I 0 W/m 11,4 C 12,2 C 6,4 km/h (2 Bft) 98,11 %
10.08.2016 05:04 12,2 C 95 % 1016,8 hPa 0,0 l/m 3,5 km/h (1 Bft) S-SW 213 0 min 0,000 mm 0,0 UV-I 0 W/m 11,4 C 12,2 C 4,8 km/h (1 Bft) 100,00 %
10.08.2016 05:06 12,2 C 95 % 1016,8 hPa 0,0 l/m 3,8 km/h (1 Bft) SW 225 0 min 0,000 mm 0,0 UV-I 0 W/m 11,4 C 12,2 C 6,4 km/h (2 Bft) 100,00 %
10.08.2016 05:08 12,2 C 95 % 1016,8 hPa 0,0 l/m 3,0 km/h (1 Bft) SW 233 0 min 0,000 mm 0,0 UV-I 0 W/m 11,4 C 12,2 C 4,8 km/h (1 Bft) 100,00 %
10.08.2016 05:10 12,2 C 95 % 1016,8 hPa 0,0 l/m 2,7 km/h (1 Bft) SW 231 0 min 0,000 mm 0,0 UV-I 0 W/m 11,4 C 12,2 C 6,4 km/h (2 Bft) 98,31 %
10.08.2016 05:12 12,2 C 95 % 1016,8 hPa 0,0 l/m 3,6 km/h (1 Bft) S-SW 205 0 min 0,000 mm 0,0 UV-I 0 W/m 11,4 C 12,2 C 6,4 km/h (2 Bft) 97,87 %
10.08.2016 05:14 12,3 C 95 % 1016,7 hPa 0,0 l/m 2,4 km/h (1 Bft) SW 220 0 min 0,000 mm 0,0 UV-I 0 W/m 11,5 C 12,3 C 4,8 km/h (1 Bft) 97,56 %
10.08.2016 05:16 12,2 C 95 % 1016,7 hPa 0,0 l/m 4,2 km/h (1 Bft) S-SW 203 0 min 0,000 mm 0,0 UV-I 0 W/m 11,4 C 12,2 C 6,4 km/h (2 Bft) 97,44 %
10.08.2016 05:18 12,2 C 95 % 1016,6 hPa 0,0 l/m 3,3 km/h (1 Bft) W-SW 241 0 min 0,000 mm 0,0 UV-I 0 W/m 11,4 C 12,2 C 4,8 km/h (1 Bft) 98,00 %
10.08.2016 05:20 12,3 C 95 % 1016,7 hPa 0,0 l/m 2,6 km/h (1 Bft) W-SW 241 0 min 0,000 mm 0,0 UV-I 0 W/m 11,5 C 12,3 C 4,8 km/h (1 Bft) 97,87 %
10.08.2016 05:22 12,3 C 96 % 1016,7 hPa 0,0 l/m 3,9 km/h (1 Bft) SW 226 0 min 0,000 mm 0,0 UV-I 0 W/m 11,7 C 12,3 C 6,4 km/h (2 Bft) 98,11 %
10.08.2016 05:24 12,3 C 96 % 1016,7 hPa 0,0 l/m 3,4 km/h (1 Bft) SW 227 0 min 0,000 mm 0,0 UV-I 0 W/m 11,7 C 12,3 C 4,8 km/h (1 Bft) 98,00 %
10.08.2016 05:26 12,3 C 96 % 1016,7 hPa 0,0 l/m 3,4 km/h (1 Bft) SW 227 0 min 0,000 mm 0,0 UV-I 0 W/m 11,7 C 12,3 C 4,8 km/h (1 Bft) 95,12 %
10.08.2016 05:28 12,3 C 96 % 1016,7 hPa 0,0 l/m 2,8 km/h (1 Bft) SW 236 0 min 0,000 mm 0,0 UV-I 0 W/m 11,7 C 12,3 C 4,8 km/h (1 Bft) 96,23 %
10.08.2016 05:30 12,3 C 96 % 1016,7 hPa 0,0 l/m 2,5 km/h (1 Bft) SW 230 0 min 0,000 mm 0,0 UV-I 0 W/m 11,7 C 12,3 C 4,8 km/h (1 Bft) 97,37 %
10.08.2016 05:32 12,3 C 96 % 1016,7 hPa 0,0 l/m 2,2 km/h (1 Bft) SW 230 0 min 0,000 mm 0,0 UV-I 0 W/m 11,7 C 12,3 C 3,2 km/h (1 Bft) 95,74 %
10.08.2016 05:34 12,3 C 96 % 1016,7 hPa 0,0 l/m 1,6 km/h (1 Bft) W-SW 251 0 min 0,000 mm 0,0 UV-I 0 W/m 11,7 C 12,3 C 1,6 km/h (1 Bft) 98,11 %
10.08.2016 05:36 12,3 C 96 % 1016,7 hPa 0,0 l/m 4,1 km/h (1 Bft) W-SW 241 0 min 0,000 mm 0,0 UV-I 0 W/m 11,7 C 12,3 C 8,0 km/h (2 Bft) 97,87 %
10.08.2016 05:38 12,3 C 96 % 1016,8 hPa 0,0 l/m 3,4 km/h (1 Bft) W-SW 240 0 min 0,000 mm 0,0 UV-I 0 W/m 11,7 C 12,3 C 4,8 km/h (1 Bft) 94,00 %
10.08.2016 05:40 12,3 C 96 % 1016,7 hPa 0,0 l/m 4,1 km/h (1 Bft) W-SW 248 0 min 0,000 mm 0,0 UV-I 0 W/m 11,7 C 12,3 C 6,4 km/h (2 Bft) 97,37 %
10.08.2016 05:42 12,3 C 96 % 1016,7 hPa 0,2 l/m 4,1 km/h (1 Bft) W-SW 250 0 min 0,000 mm 0,0 UV-I 0 W/m 11,7 C 12,3 C 4,8 km/h (1 Bft) 98,00 %
10.08.2016 05:44 12,3 C 96 % 1016,8 hPa 0,0 l/m 4,1 km/h (1 Bft) W 259 0 min 0,000 mm 0,0 UV-I 0 W/m 11,7 C 12,3 C 6,4 km/h (2 Bft) 96,00 %
10.08.2016 05:46 12,3 C 96 % 1016,8 hPa 0,0 l/m 3,9 km/h (1 Bft) W 259 0 min 0,000 mm 0,0 UV-I 0 W/m 11,7 C 12,3 C 4,8 km/h (1 Bft) 97,37 %
10.08.2016 05:48 12,3 C 96 % 1016,8 hPa 0,0 l/m 4,2 km/h (1 Bft) SW 227 0 min 0,000 mm 0,0 UV-I 0 W/m 11,7 C 12,3 C 6,4 km/h (2 Bft) 100,00 %
10.08.2016 05:50 12,3 C 96 % 1016,8 hPa 0,0 l/m 3,3 km/h (1 Bft) W-SW 240 0 min 0,000 mm 0,0 UV-I 0 W/m 11,7 C 12,3 C 4,8 km/h (1 Bft) 95,74 %
10.08.2016 05:52 12,3 C 96 % 1016,8 hPa 0,0 l/m 3,7 km/h (1 Bft) W-SW 250 0 min 0,000 mm 0,0 UV-I 0 W/m 11,7 C 12,3 C 4,8 km/h (1 Bft) 100,00 %
10.08.2016 05:54 12,3 C 96 % 1016,8 hPa 0,0 l/m 3,5 km/h (1 Bft) W-SW 250 0 min 0,000 mm 0,0 UV-I 0 W/m 11,7 C 12,3 C 4,8 km/h (1 Bft) 100,00 %
10.08.2016 05:56 12,3 C 96 % 1016,8 hPa 0,0 l/m 2,1 km/h (1 Bft) W-SW 250 0 min 0,000 mm 0,0 UV-I 0 W/m 11,7 C 12,3 C 4,8 km/h (1 Bft) 93,62 %
10.08.2016 05:58 12,3 C 96 % 1016,8 hPa 0,0 l/m 2,0 km/h (1 Bft) W-SW 250 0 min 0,000 mm 0,0 UV-I 0 W/m 11,7 C 12,3 C 3,2 km/h (1 Bft) 100,00 %
10.08.2016 06:00 12,3 C 96 % 1016,8 hPa 0,2 l/m 3,2 km/h (1 Bft) W-SW 250 0 min 0,000 mm 0,0 UV-I 0 W/m 11,7 C 12,3 C 4,8 km/h (1 Bft) 100,00 %
10.08.2016 06:02 12,3 C 96 % 1016,7 hPa 0,0 l/m 3,1 km/h (1 Bft) W-SW 254 0 min 0,000 mm 0,0 UV-I 0 W/m 11,7 C 12,3 C 6,4 km/h (2 Bft) 97,56 %
10.08.2016 06:04 12,3 C 96 % 1016,7 hPa 0,0 l/m 4,4 km/h (1 Bft) W-SW 238 0 min 0,000 mm 0,0 UV-I 0 W/m 11,7 C 12,3 C 6,4 km/h (2 Bft) 100,00 %
10.08.2016 06:06 12,3 C 96 % 1016,7 hPa 0,0 l/m 3,9 km/h (1 Bft) S-SW 209 0 min 0,000 mm 0,0 UV-I 1 W/m 11,7 C 12,3 C 6,4 km/h (2 Bft) 100,00 %
10.08.2016 06:08 12,3 C 96 % 1016,8 hPa 0,0 l/m 5,0 km/h (1 Bft) SW 228 0 min 0,000 mm 0,0 UV-I 5 W/m 11,7 C 12,3 C 8,0 km/h (2 Bft) 100,00 %
10.08.2016 06:10 12,3 C 96 % 1016,7 hPa 0,0 l/m 3,9 km/h (1 Bft) W-SW 241 0 min 0,000 mm 0,0 UV-I 5 W/m 11,7 C 12,3 C 8,0 km/h (2 Bft) 100,00 %
10.08.2016 06:12 12,3 C 96 % 1016,8 hPa 0,0 l/m 3,3 km/h (1 Bft) W-SW 239 0 min 0,000 mm 0,0 UV-I 5 W/m 11,7 C 12,3 C 6,4 km/h (2 Bft) 100,00 %
10.08.2016 06:14 12,3 C 96 % 1016,8 hPa 0,0 l/m 4,0 km/h (1 Bft) W-SW 252 0 min 0,000 mm 0,0 UV-I 6 W/m 11,7 C 12,3 C 6,4 km/h (2 Bft) 100,00 %
10.08.2016 06:16 12,3 C 96 % 1016,8 hPa 0,0 l/m 5,6 km/h (1 Bft) W-SW 250 0 min 0,000 mm 0,0 UV-I 7 W/m 11,7 C 12,3 C 8,0 km/h (2 Bft) 100,00 %
10.08.2016 06:18 12,3 C 96 % 1016,8 hPa 0,2 l/m 4,0 km/h (1 Bft) W-SW 252 0 min 0,000 mm 0,0 UV-I 7 W/m 11,7 C 12,3 C 6,4 km/h (2 Bft) 100,00 %
10.08.2016 06:20 12,3 C 96 % 1016,8 hPa 0,0 l/m 4,6 km/h (1 Bft) W-SW 254 0 min 0,000 mm 0,0 UV-I 7 W/m 11,7 C 12,3 C 6,4 km/h (2 Bft) 100,00 %
10.08.2016 06:22 12,3 C 96 % 1016,8 hPa 0,0 l/m 3,5 km/h (1 Bft) SW 226 0 min 0,000 mm 0,0 UV-I 9 W/m 11,7 C 12,3 C 4,8 km/h (1 Bft) 100,00 %
10.08.2016 06:24 12,3 C 96 % 1016,8 hPa 0,0 l/m 5,2 km/h (1 Bft) SW 221 0 min 0,000 mm 0,0 UV-I 9 W/m 11,7 C 12,3 C 9,7 km/h (2 Bft) 96,00 %
10.08.2016 06:26 12,2 C 96 % 1016,8 hPa 0,0 l/m 4,9 km/h (1 Bft) SW 224 0 min 0,000 mm 0,0 UV-I 11 W/m 11,6 C 12,2 C 8,0 km/h (2 Bft) 94,00 %
10.08.2016 06:28 12,2 C 96 % 1016,9 hPa 0,0 l/m 4,3 km/h (1 Bft) W-SW 247 0 min 0,000 mm 0,0 UV-I 11 W/m 11,6 C 12,2 C 4,8 km/h (1 Bft) 100,00 %
10.08.2016 06:30 12,2 C 96 % 1016,9 hPa 0,2 l/m 3,9 km/h (1 Bft) S-SW 213 0 min 0,000 mm 0,0 UV-I 12 W/m 11,6 C 12,2 C 6,4 km/h (2 Bft) 100,00 %
10.08.2016 06:32 12,2 C 96 % 1016,9 hPa 0,0 l/m 4,8 km/h (1 Bft) W 262 0 min 0,000 mm 0,0 UV-I 12 W/m 11,6 C 12,2 C 9,7 km/h (2 Bft) 100,00 %
10.08.2016 06:34 12,2 C 96 % 1016,9 hPa 0,0 l/m 5,9 km/h (2 Bft) W-SW 239 0 min 0,000 mm 0,0 UV-I 13 W/m 11,6 C 12,2 C 9,7 km/h (2 Bft) 100,00 %
10.08.2016 06:36 12,2 C 96 % 1017,0 hPa 0,0 l/m 5,0 km/h (1 Bft) W-SW 242 0 min 0,000 mm 0,0 UV-I 14 W/m 11,6 C 12,2 C 6,4 km/h (2 Bft) 100,00 %
10.08.2016 06:38 12,2 C 96 % 1017,0 hPa 0,0 l/m 5,9 km/h (2 Bft) W-SW 248 0 min 0,000 mm 0,0 UV-I 14 W/m 11,6 C 12,2 C 8,0 km/h (2 Bft) 94,87 %
10.08.2016 06:40 12,2 C 96 % 1016,9 hPa 0,0 l/m 6,1 km/h (2 Bft) SW 217 0 min 0,000 mm 0,0 UV-I 14 W/m 11,6 C 12,2 C 8,0 km/h (2 Bft) 96,00 %
10.08.2016 06:42 12,2 C 96 % 1017,0 hPa 0,0 l/m 6,6 km/h (2 Bft) SW 234 0 min 0,000 mm 0,0 UV-I 14 W/m 11,6 C 12,1 C 9,7 km/h (2 Bft) 100,00 %
10.08.2016 06:44 12,2 C 96 % 1017,0 hPa 0,0 l/m 5,3 km/h (1 Bft) SW 215 0 min 0,000 mm 0,0 UV-I 14 W/m 11,6 C 12,2 C 6,4 km/h (2 Bft) 100,00 %
10.08.2016 06:46 12,2 C 96 % 1017,0 hPa 0,0 l/m 5,6 km/h (1 Bft) W-SW 240 0 min 0,000 mm 0,0 UV-I 16 W/m 11,6 C 12,2 C 9,7 km/h (2 Bft) 97,56 %
10.08.2016 06:48 12,2 C 96 % 1017,0 hPa 0,0 l/m 7,9 km/h (2 Bft) SW 227 0 min 0,000 mm 0,0 UV-I 16 W/m 11,6 C 11,2 C 12,9 km/h (3 Bft) 100,00 %
10.08.2016 06:50 12,2 C 96 % 1017,0 hPa 0,2 l/m 7,4 km/h (2 Bft) W-SW 240 0 min 0,000 mm 0,0 UV-I 16 W/m 11,6 C 11,5 C 9,7 km/h (2 Bft) 100,00 %
10.08.2016 06:52 12,2 C 96 % 1017,1 hPa 0,0 l/m 6,6 km/h (2 Bft) SW 227 0 min 0,000 mm 0,0 UV-I 16 W/m 11,6 C 12,1 C 8,0 km/h (2 Bft) 100,00 %
10.08.2016 06:54 12,2 C 96 % 1017,1 hPa 0,0 l/m 5,8 km/h (2 Bft) SW 229 0 min 0,000 mm 0,0 UV-I 16 W/m 11,6 C 12,2 C 9,7 km/h (2 Bft) 100,00 %
10.08.2016 06:56 12,2 C 96 % 1017,1 hPa 0,0 l/m 6,2 km/h (2 Bft) W-SW 248 0 min 0,000 mm 0,0 UV-I 16 W/m 11,6 C 12,2 C 9,7 km/h (2 Bft) 100,00 %
10.08.2016 06:58 12,2 C 96 % 1017,1 hPa 0,0 l/m 7,3 km/h (2 Bft) SW 219 0 min 0,000 mm 0,0 UV-I 16 W/m 11,6 C 11,6 C 11,3 km/h (2 Bft) 100,00 %
10.08.2016 07:00 12,2 C 96 % 1017,1 hPa 0,0 l/m 6,7 km/h (2 Bft) W-SW 246 0 min 0,000 mm 0,0 UV-I 16 W/m 11,6 C 12,0 C 11,3 km/h (2 Bft) 100,00 %
10.08.2016 07:02 12,1 C 96 % 1017,2 hPa 0,0 l/m 5,9 km/h (2 Bft) W-SW 238 0 min 0,000 mm 0,0 UV-I 16 W/m 11,5 C 12,1 C 9,7 km/h (2 Bft) 100,00 %
10.08.2016 07:04 12,1 C 96 % 1017,2 hPa 0,0 l/m 7,7 km/h (2 Bft) W-SW 254 0 min 0,000 mm 0,0 UV-I 16 W/m 11,5 C 11,2 C 12,9 km/h (3 Bft) 100,00 %
10.08.2016 07:06 12,2 C 96 % 1017,2 hPa 0,2 l/m 6,5 km/h (2 Bft) W 261 0 min 0,000 mm 0,0 UV-I 17 W/m 11,6 C 12,2 C 11,3 km/h (2 Bft) 100,00 %
10.08.2016 07:08 12,1 C 96 % 1017,2 hPa 0,0 l/m 9,4 km/h (2 Bft) W 265 0 min 0,000 mm 0,0 UV-I 18 W/m 11,5 C 10,2 C 11,3 km/h (2 Bft) 100,00 %
10.08.2016 07:10 12,2 C 96 % 1017,2 hPa 0,0 l/m 7,2 km/h (2 Bft) W-SW 254 0 min 0,000 mm 0,0 UV-I 18 W/m 11,6 C 11,7 C 11,3 km/h (2 Bft) 96,00 %
10.08.2016 07:12 12,2 C 96 % 1017,3 hPa 0,0 l/m 5,7 km/h (1 Bft) W-SW 252 0 min 0,000 mm 0,0 UV-I 19 W/m 11,6 C 12,2 C 12,9 km/h (3 Bft) 97,44 %
10.08.2016 07:14 12,1 C 96 % 1017,3 hPa 0,0 l/m 7,7 km/h (2 Bft) W-SW 252 0 min 0,000 mm 0,0 UV-I 19 W/m 11,5 C 11,2 C 12,9 km/h (3 Bft) 96,36 %
10.08.2016 07:16 12,1 C 96 % 1017,3 hPa 0,0 l/m 7,8 km/h (2 Bft) W-SW 240 0 min 0,000 mm 0,0 UV-I 21 W/m 11,5 C 11,2 C 11,3 km/h (2 Bft) 97,44 %
10.08.2016 07:18 12,2 C 96 % 1017,3 hPa 0,0 l/m 8,1 km/h (2 Bft) W 271 0 min 0,000 mm 0,0 UV-I 21 W/m 11,6 C 11,1 C 12,9 km/h (3 Bft) 98,00 %
10.08.2016 07:20 12,2 C 96 % 1017,4 hPa 0,0 l/m 6,3 km/h (2 Bft) W-SW 252 0 min 0,000 mm 0,0 UV-I 21 W/m 11,6 C 12,2 C 9,7 km/h (2 Bft) 97,87 %
10.08.2016 07:22 12,1 C 96 % 1017,3 hPa 0,0 l/m 8,8 km/h (2 Bft) W 259 0 min 0,000 mm 0,0 UV-I 21 W/m 11,5 C 10,6 C 14,5 km/h (3 Bft) 98,11 %
10.08.2016 07:24 12,1 C 96 % 1017,4 hPa 0,0 l/m 8,2 km/h (2 Bft) W-SW 244 0 min 0,000 mm 0,0 UV-I 21 W/m 11,5 C 10,9 C 12,9 km/h (3 Bft) 97,37 %
10.08.2016 07:26 12,1 C 96 % 1017,4 hPa 0,0 l/m 10,7 km/h (2 Bft) W-NW 285 0 min 0,000 mm 0,0 UV-I 24 W/m 11,5 C 9,6 C 16,1 km/h (3 Bft) 98,11 %
10.08.2016 07:28 12,1 C 95 % 1017,4 hPa 0,0 l/m 10,5 km/h (2 Bft) W-SW 257 0 min 0,000 mm 0,0 UV-I 25 W/m 11,3 C 9,7 C 14,5 km/h (3 Bft) 97,56 %
10.08.2016 07:30 12,1 C 95 % 1017,4 hPa 0,2 l/m 8,8 km/h (2 Bft) W-SW 244 0 min 0,000 mm 0,0 UV-I 26 W/m 11,3 C 10,6 C 14,5 km/h (3 Bft) 98,00 %
10.08.2016 07:32 12,1 C 95 % 1017,4 hPa 0,0 l/m 10,7 km/h (2 Bft) W 264 0 min 0,000 mm 0,0 UV-I 26 W/m 11,3 C 9,6 C 14,5 km/h (3 Bft) 95,74 %
10.08.2016 07:34 12,1 C 95 % 1017,4 hPa 0,0 l/m 9,3 km/h (2 Bft) W-SW 251 0 min 0,000 mm 0,0 UV-I 28 W/m 11,3 C 10,3 C 14,5 km/h (3 Bft) 98,00 %
10.08.2016 07:36 12,1 C 95 % 1017,4 hPa 0,0 l/m 6,5 km/h (2 Bft) W-SW 257 0 min 0,000 mm 0,0 UV-I 28 W/m 11,3 C 12,1 C 11,3 km/h (2 Bft) 97,87 %
10.08.2016 07:38 12,1 C 95 % 1017,4 hPa 0,0 l/m 9,4 km/h (2 Bft) W-SW 237 0 min 0,000 mm 0,0 UV-I 28 W/m 11,3 C 10,2 C 14,5 km/h (3 Bft) 97,87 %
10.08.2016 07:40 12,1 C 95 % 1017,4 hPa 0,0 l/m 9,5 km/h (2 Bft) W-SW 254 0 min 0,000 mm 0,0 UV-I 28 W/m 11,3 C 10,2 C 14,5 km/h (3 Bft) 97,37 %
10.08.2016 07:42 12,1 C 95 % 1017,3 hPa 0,2 l/m 9,5 km/h (2 Bft) W 264 0 min 0,000 mm 0,0 UV-I 30 W/m 11,3 C 10,2 C 14,5 km/h (3 Bft) 97,56 %
10.08.2016 07:44 12,1 C 95 % 1017,4 hPa 0,0 l/m 10,0 km/h (2 Bft) W 259 0 min 0,000 mm 0,0 UV-I 31 W/m 11,3 C 9,9 C 12,9 km/h (3 Bft) 98,21 %
10.08.2016 07:46 12,1 C 95 % 1017,4 hPa 0,0 l/m 7,4 km/h (2 Bft) W-NW 288 0 min 0,000 mm 0,0 UV-I 32 W/m 11,3 C 11,4 C 11,3 km/h (2 Bft) 98,00 %
10.08.2016 07:48 12,1 C 95 % 1017,4 hPa 0,0 l/m 7,7 km/h (2 Bft) W-SW 253 0 min 0,000 mm 0,0 UV-I 33 W/m 11,3 C 11,2 C 14,5 km/h (3 Bft) 100,00 %
10.08.2016 07:50 12,1 C 95 % 1017,3 hPa 0,0 l/m 8,6 km/h (2 Bft) W-SW 242 0 min 0,000 mm 0,0 UV-I 33 W/m 11,3 C 10,7 C 14,5 km/h (3 Bft) 100,00 %
10.08.2016 07:52 12,0 C 95 % 1017,3 hPa 0,0 l/m 10,1 km/h (2 Bft) W-SW 243 0 min 0,000 mm 0,0 UV-I 34 W/m 11,2 C 9,8 C 16,1 km/h (3 Bft) 98,18 %
10.08.2016 07:54 12,0 C 95 % 1017,3 hPa 0,0 l/m 11,1 km/h (2 Bft) W-SW 248 0 min 0,000 mm 0,0 UV-I 36 W/m 11,2 C 9,2 C 16,1 km/h (3 Bft) 100,00 %
10.08.2016 07:56 12,0 C 95 % 1017,4 hPa 0,2 l/m 8,2 km/h (2 Bft) W-SW 245 0 min 0,000 mm 0,0 UV-I 39 W/m 11,2 C 10,8 C 14,5 km/h (3 Bft) 98,11 %
10.08.2016 07:58 12,0 C 95 % 1017,4 hPa 0,0 l/m 7,3 km/h (2 Bft) W-SW 237 0 min 0,000 mm 0,0 UV-I 41 W/m 11,2 C 11,4 C 11,3 km/h (2 Bft) 100,00 %
10.08.2016 08:00 12,0 C 95 % 1017,3 hPa 0,0 l/m 10,3 km/h (2 Bft) W-SW 257 0 min 0,000 mm 0,0 UV-I 44 W/m 11,2 C 9,6 C 14,5 km/h (3 Bft) 100,00 %
10.08.2016 08:02 12,0 C 95 % 1017,3 hPa 0,0 l/m 8,1 km/h (2 Bft) W-SW 247 0 min 0,025 mm 0,0 UV-I 47 W/m 11,2 C 10,9 C 12,9 km/h (3 Bft) 100,00 %
10.08.2016 08:04 12,0 C 96 % 1017,3 hPa 0,2 l/m 7,3 km/h (2 Bft) SW 234 0 min 0,000 mm 0,0 UV-I 49 W/m 11,4 C 11,4 C 11,3 km/h (2 Bft) 100,00 %
10.08.2016 08:06 12,0 C 96 % 1017,2 hPa 0,0 l/m 5,7 km/h (1 Bft) W-SW 257 0 min 0,000 mm 0,0 UV-I 52 W/m 11,4 C 12,0 C 11,3 km/h (2 Bft) 100,00 %
10.08.2016 08:08 12,0 C 96 % 1017,2 hPa 0,0 l/m 6,1 km/h (2 Bft) W 266 0 min 0,000 mm 0,0 UV-I 53 W/m 11,4 C 12,0 C 11,3 km/h (2 Bft) 100,00 %
10.08.2016 08:10 11,9 C 96 % 1017,2 hPa 0,0 l/m 6,8 km/h (2 Bft) W-SW 248 0 min 0,000 mm 0,0 UV-I 54 W/m 11,3 C 11,6 C 11,3 km/h (2 Bft) 100,00 %
10.08.2016 08:12 11,9 C 96 % 1017,2 hPa 0,0 l/m 8,8 km/h (2 Bft) W 262 0 min 0,000 mm 0,0 UV-I 54 W/m 11,3 C 10,4 C 16,1 km/h (3 Bft) 100,00 %
10.08.2016 08:14 12,0 C 96 % 1017,2 hPa 0,0 l/m 7,3 km/h (2 Bft) W 272 0 min 0,000 mm 0,0 UV-I 54 W/m 11,4 C 11,4 C 11,3 km/h (2 Bft) 100,00 %
10.08.2016 08:16 12,0 C 96 % 1017,2 hPa 0,2 l/m 6,4 km/h (2 Bft) W 260 0 min 0,000 mm 0,0 UV-I 53 W/m 11,4 C 12,0 C 14,5 km/h (3 Bft) 100,00 %
10.08.2016 08:18 12,0 C 96 % 1017,2 hPa 0,0 l/m 8,5 km/h (2 Bft) W-SW 240 0 min 0,000 mm 0,0 UV-I 53 W/m 11,4 C 10,6 C 14,5 km/h (3 Bft) 100,00 %
10.08.2016 08:20 11,9 C 95 % 1017,3 hPa 0,0 l/m 8,2 km/h (2 Bft) W-SW 256 0 min 0,000 mm 0,0 UV-I 53 W/m 11,1 C 10,7 C 14,5 km/h (3 Bft) 100,00 %
10.08.2016 08:22 11,9 C 96 % 1017,2 hPa 0,0 l/m 7,4 km/h (2 Bft) W-SW 248 0 min 0,000 mm 0,0 UV-I 53 W/m 11,3 C 11,2 C 11,3 km/h (2 Bft) 100,00 %
10.08.2016 08:24 12,0 C 96 % 1017,2 hPa 0,0 l/m 6,3 km/h (2 Bft) W-SW 242 0 min 0,000 mm 0,0 UV-I 54 W/m 11,4 C 12,0 C 11,3 km/h (2 Bft) 100,00 %
10.08.2016 08:26 12,0 C 96 % 1017,3 hPa 0,0 l/m 9,3 km/h (2 Bft) W-SW 238 0 min 0,000 mm 0,0 UV-I 54 W/m 11,4 C 10,2 C 14,5 km/h (3 Bft) 100,00 %
10.08.2016 08:28 12,0 C 96 % 1017,2 hPa 0,2 l/m 7,5 km/h (2 Bft) SW 233 0 min 0,000 mm 0,0 UV-I 53 W/m 11,4 C 11,3 C 12,9 km/h (3 Bft) 100,00 %
10.08.2016 08:30 12,0 C 96 % 1017,3 hPa 0,0 l/m 9,0 km/h (2 Bft) W-SW 247 0 min 0,000 mm 0,0 UV-I 50 W/m 11,4 C 10,4 C 12,9 km/h (3 Bft) 100,00 %
10.08.2016 08:32 12,0 C 96 % 1017,3 hPa 0,0 l/m 7,2 km/h (2 Bft) W-SW 241 0 min 0,000 mm 0,0 UV-I 47 W/m 11,4 C 11,5 C 11,3 km/h (2 Bft) 94,87 %
10.08.2016 08:34 12,0 C 96 % 1017,2 hPa 0,0 l/m 7,7 km/h (2 Bft) SW 217 0 min 0,000 mm 0,0 UV-I 43 W/m 11,4 C 11,1 C 14,5 km/h (3 Bft) 100,00 %
10.08.2016 08:36 12,0 C 96 % 1017,3 hPa 0,0 l/m 5,1 km/h (1 Bft) W 261 0 min 0,000 mm 0,0 UV-I 42 W/m 11,4 C 12,0 C 9,7 km/h (2 Bft) 100,00 %
10.08.2016 08:38 12,0 C 96 % 1017,3 hPa 0,0 l/m 4,6 km/h (1 Bft) W-NW 291 0 min 0,000 mm 0,0 UV-I 42 W/m 11,4 C 12,0 C 9,7 km/h (2 Bft) 100,00 %
10.08.2016 08:40 12,0 C 96 % 1017,3 hPa 0,2 l/m 4,9 km/h (1 Bft) W-SW 249 0 min 0,000 mm 0,0 UV-I 41 W/m 11,4 C 12,0 C 8,0 km/h (2 Bft) 100,00 %
10.08.2016 08:42 12,1 C 96 % 1017,3 hPa 0,0 l/m 4,6 km/h (1 Bft) W-SW 241 0 min 0,000 mm 0,0 UV-I 38 W/m 11,5 C 12,1 C 8,0 km/h (2 Bft) 98,11 %
10.08.2016 08:44 12,1 C 96 % 1017,3 hPa 0,2 l/m 5,2 km/h (1 Bft) W-SW 251 0 min 0,000 mm 0,0 UV-I 36 W/m 11,5 C 12,1 C 9,7 km/h (2 Bft) 100,00 %
10.08.2016 08:46 12,1 C 96 % 1017,4 hPa 0,0 l/m 5,5 km/h (1 Bft) SW 236 0 min 0,000 mm 0,0 UV-I 34 W/m 11,5 C 12,1 C 8,0 km/h (2 Bft) 100,00 %
10.08.2016 08:48 12,1 C 96 % 1017,4 hPa 0,0 l/m 8,8 km/h (2 Bft) SW 216 0 min 0,000 mm 0,0 UV-I 31 W/m 11,5 C 10,6 C 14,5 km/h (3 Bft) 100,00 %
10.08.2016 08:50 12,0 C 96 % 1017,4 hPa 0,2 l/m 6,5 km/h (2 Bft) W-SW 250 0 min 0,000 mm 0,0 UV-I 28 W/m 11,4 C 12,0 C 11,3 km/h (2 Bft) 97,92 %
10.08.2016 08:52 12,0 C 96 % 1017,4 hPa 0,0 l/m 6,6 km/h (2 Bft) SW 227 0 min 0,000 mm 0,0 UV-I 26 W/m 11,4 C 11,9 C 12,9 km/h (3 Bft) 100,00 %
10.08.2016 08:54 11,9 C 96 % 1017,4 hPa 0,2 l/m 7,9 km/h (2 Bft) W-SW 252 0 min 0,000 mm 0,0 UV-I 26 W/m 11,3 C 10,9 C 14,5 km/h (3 Bft) 100,00 %
10.08.2016 08:56 11,9 C 96 % 1017,5 hPa 0,2 l/m 7,7 km/h (2 Bft) W-SW 244 0 min 0,000 mm 0,0 UV-I 27 W/m 11,3 C 11,0 C 12,9 km/h (3 Bft) 100,00 %
10.08.2016 08:58 11,9 C 96 % 1017,5 hPa 0,2 l/m 6,4 km/h (2 Bft) W-SW 253 0 min 0,000 mm 0,0 UV-I 26 W/m 11,3 C 11,9 C 11,3 km/h (2 Bft) 100,00 %
10.08.2016 09:00 12,0 C 96 % 1017,5 hPa 0,0 l/m 6,3 km/h (2 Bft) W-SW 245 0 min 0,026 mm 0,0 UV-I 29 W/m 11,4 C 12,0 C 9,7 km/h (2 Bft) 100,00 %
10.08.2016 09:02 11,9 C 96 % 1017,4 hPa 0,0 l/m 6,1 km/h (2 Bft) W-SW 239 0 min 0,000 mm 0,0 UV-I 38 W/m 11,3 C 11,9 C 11,3 km/h (2 Bft) 100,00 %
10.08.2016 09:04 11,9 C 96 % 1017,4 hPa 0,2 l/m 5,8 km/h (2 Bft) SW 215 0 min 0,000 mm 0,0 UV-I 52 W/m 11,3 C 11,9 C 9,7 km/h (2 Bft) 100,00 %
10.08.2016 09:06 11,9 C 96 % 1017,5 hPa 0,0 l/m 7,0 km/h (2 Bft) W-SW 238 0 min 0,000 mm 0,0 UV-I 61 W/m 11,3 C 11,5 C 12,9 km/h (3 Bft) 100,00 %
10.08.2016 09:08 11,9 C 96 % 1017,4 hPa 0,0 l/m 7,4 km/h (2 Bft) SW 218 0 min 0,000 mm 0,0 UV-I 66 W/m 11,3 C 11,2 C 11,3 km/h (2 Bft) 97,56 %
10.08.2016 09:10 12,0 C 96 % 1017,5 hPa 0,2 l/m 5,5 km/h (1 Bft) SW 234 0 min 0,000 mm 0,0 UV-I 68 W/m 11,4 C 12,0 C 9,7 km/h (2 Bft) 100,00 %
10.08.2016 09:12 12,0 C 96 % 1017,5 hPa 0,0 l/m 5,9 km/h (2 Bft) W-SW 242 0 min 0,000 mm 0,0 UV-I 64 W/m 11,4 C 12,0 C 8,0 km/h (2 Bft) 96,00 %
10.08.2016 09:14 12,0 C 96 % 1017,4 hPa 0,0 l/m 5,3 km/h (1 Bft) W-SW 243 0 min 0,000 mm 0,0 UV-I 60 W/m 11,4 C 12,0 C 9,7 km/h (2 Bft) 98,00 %
10.08.2016 09:16 12,0 C 96 % 1017,5 hPa 0,0 l/m 7,9 km/h (2 Bft) W-SW 238 0 min 0,000 mm 0,0 UV-I 60 W/m 11,4 C 11,0 C 12,9 km/h (3 Bft) 95,74 %
10.08.2016 09:18 12,1 C 96 % 1017,4 hPa 0,2 l/m 7,2 km/h (2 Bft) SW 229 0 min 0,000 mm 0,0 UV-I 62 W/m 11,5 C 11,6 C 9,7 km/h (2 Bft) 100,00 %
10.08.2016 09:20 12,1 C 96 % 1017,4 hPa 0,0 l/m 6,7 km/h (2 Bft) W-SW 238 0 min 0,000 mm 0,0 UV-I 63 W/m 11,5 C 11,9 C 11,3 km/h (2 Bft) 96,61 %
10.08.2016 09:22 12,1 C 96 % 1017,4 hPa 0,2 l/m 6,6 km/h (2 Bft) W-SW 242 0 min 0,000 mm 0,0 UV-I 64 W/m 11,5 C 12,0 C 9,7 km/h (2 Bft) 94,74 %
10.08.2016 09:24 12,1 C 96 % 1017,4 hPa 0,0 l/m 5,0 km/h (1 Bft) S-SW 208 0 min 0,000 mm 0,0 UV-I 65 W/m 11,5 C 12,1 C 8,0 km/h (2 Bft) 98,11 %
10.08.2016 09:26 12,1 C 96 % 1017,4 hPa 0,0 l/m 7,1 km/h (2 Bft) SW 227 0 min 0,000 mm 0,0 UV-I 63 W/m 11,5 C 11,6 C 12,9 km/h (3 Bft) 97,37 %
10.08.2016 09:28 12,1 C 96 % 1017,4 hPa 0,0 l/m 6,9 km/h (2 Bft) SW 231 0 min 0,000 mm 0,0 UV-I 63 W/m 11,5 C 11,8 C 14,5 km/h (3 Bft) 98,11 %
10.08.2016 09:30 12,1 C 96 % 1017,4 hPa 0,2 l/m 6,8 km/h (2 Bft) SW 236 0 min 0,000 mm 0,0 UV-I 62 W/m 11,5 C 11,8 C 11,3 km/h (2 Bft) 97,14 %
10.08.2016 09:32 12,1 C 96 % 1017,4 hPa 0,0 l/m 6,2 km/h (2 Bft) W-SW 254 0 min 0,000 mm 0,0 UV-I 61 W/m 11,5 C 12,1 C 9,7 km/h (2 Bft) 98,31 %
10.08.2016 09:34 12,1 C 96 % 1017,4 hPa 0,0 l/m 7,0 km/h (2 Bft) SW 235 0 min 0,000 mm 0,0 UV-I 58 W/m 11,5 C 11,7 C 14,5 km/h (3 Bft) 97,56 %
10.08.2016 09:36 12,1 C 95 % 1017,5 hPa 0,2 l/m 5,0 km/h (1 Bft) W-SW 242 0 min 0,000 mm 0,0 UV-I 53 W/m 11,3 C 12,1 C 8,0 km/h (2 Bft) 96,00 %
10.08.2016 09:38 12,1 C 96 % 1017,5 hPa 0,0 l/m 6,1 km/h (2 Bft) W 263 0 min 0,000 mm 0,0 UV-I 46 W/m 11,5 C 12,1 C 9,7 km/h (2 Bft) 98,18 %
10.08.2016 09:40 12,1 C 96 % 1017,5 hPa 0,0 l/m 9,1 km/h (2 Bft) W 268 0 min 0,000 mm 0,0 UV-I 40 W/m 11,5 C 10,4 C 16,1 km/h (3 Bft) 97,56 %
10.08.2016 09:42 12,1 C 96 % 1017,5 hPa 0,2 l/m 12,0 km/h (2 Bft) W-SW 254 0 min 0,000 mm 0,0 UV-I 36 W/m 11,5 C 8,9 C 16,1 km/h (3 Bft) 97,73 %
10.08.2016 09:44 12,1 C 95 % 1017,6 hPa 0,2 l/m 9,2 km/h (2 Bft) W 261 0 min 0,000 mm 0,0 UV-I 32 W/m 11,3 C 10,3 C 16,1 km/h (3 Bft) 98,00 %
10.08.2016 09:46 12,1 C 96 % 1017,6 hPa 0,0 l/m 8,4 km/h (2 Bft) W-SW 243 0 min 0,000 mm 0,0 UV-I 28 W/m 11,5 C 10,8 C 16,1 km/h (3 Bft) 100,00 %
10.08.2016 09:48 12,0 C 96 % 1017,7 hPa 0,0 l/m 8,9 km/h (2 Bft) W 277 0 min 0,000 mm 0,0 UV-I 25 W/m 11,4 C 10,4 C 14,5 km/h (3 Bft) 100,00 %
10.08.2016 09:50 12,0 C 96 % 1017,7 hPa 0,2 l/m 8,2 km/h (2 Bft) W-SW 252 0 min 0,000 mm 0,0 UV-I 23 W/m 11,4 C 10,8 C 14,5 km/h (3 Bft) 98,00 %
10.08.2016 09:52 12,0 C 96 % 1017,7 hPa 0,2 l/m 5,4 km/h (1 Bft) SW 217 0 min 0,000 mm 0,0 UV-I 23 W/m 11,4 C 12,0 C 9,7 km/h (2 Bft) 100,00 %
10.08.2016 09:54 11,9 C 96 % 1017,8 hPa 0,0 l/m 7,6 km/h (2 Bft) SW 219 0 min 0,000 mm 0,0 UV-I 23 W/m 11,3 C 11,1 C 11,3 km/h (2 Bft) 97,78 %
10.08.2016 09:56 12,0 C 96 % 1017,8 hPa 0,2 l/m 6,1 km/h (2 Bft) SW 217 0 min 0,000 mm 0,0 UV-I 24 W/m 11,4 C 12,0 C 9,7 km/h (2 Bft) 100,00 %
10.08.2016 09:58 12,0 C 96 % 1017,8 hPa 0,2 l/m 9,5 km/h (2 Bft) W-SW 245 0 min 0,000 mm 0,0 UV-I 30 W/m 11,4 C 10,1 C 14,5 km/h (3 Bft) 100,00 %
10.08.2016 10:00 11,9 C 96 % 1017,8 hPa 0,2 l/m 5,9 km/h (2 Bft) W-SW 244 0 min 0,025 mm 0,0 UV-I 35 W/m 11,3 C 11,9 C 9,7 km/h (2 Bft) 98,00 %
10.08.2016 10:02 11,9 C 96 % 1017,7 hPa 0,2 l/m 8,3 km/h (2 Bft) S-SW 200 0 min 0,000 mm 0,0 UV-I 39 W/m 11,3 C 10,7 C 12,9 km/h (3 Bft) 100,00 %
10.08.2016 10:04 12,0 C 96 % 1017,8 hPa 0,0 l/m 7,4 km/h (2 Bft) W-SW 240 0 min 0,000 mm 0,0 UV-I 44 W/m 11,4 C 11,3 C 12,9 km/h (3 Bft) 100,00 %
10.08.2016 10:06 11,9 C 96 % 1017,7 hPa 0,0 l/m 9,0 km/h (2 Bft) W-SW 250 0 min 0,000 mm 0,0 UV-I 46 W/m 11,3 C 10,2 C 16,1 km/h (3 Bft) 98,00 %
10.08.2016 10:08 11,9 C 96 % 1017,8 hPa 0,2 l/m 10,2 km/h (2 Bft) SW 219 0 min 0,000 mm 0,0 UV-I 47 W/m 11,3 C 9,6 C 14,5 km/h (3 Bft) 97,56 %
10.08.2016 10:10 11,9 C 96 % 1017,8 hPa 0,0 l/m 11,8 km/h (2 Bft) S-SW 207 0 min 0,000 mm 0,0 UV-I 49 W/m 11,3 C 8,8 C 17,7 km/h (3 Bft) 100,00 %
10.08.2016 10:12 11,9 C 95 % 1017,8 hPa 0,2 l/m 11,1 km/h (2 Bft) S-SW 205 0 min 0,000 mm 0,0 UV-I 49 W/m 11,1 C 9,1 C 17,7 km/h (3 Bft) 100,00 %
10.08.2016 10:14 11,9 C 96 % 1017,9 hPa 0,0 l/m 7,2 km/h (2 Bft) S-SW 194 0 min 0,000 mm 0,0 UV-I 50 W/m 11,3 C 11,4 C 12,9 km/h (3 Bft) 100,00 %
10.08.2016 10:16 11,9 C 96 % 1017,8 hPa 0,0 l/m 8,1 km/h (2 Bft) SW 226 0 min 0,000 mm 0,0 UV-I 52 W/m 11,3 C 10,8 C 14,5 km/h (3 Bft) 97,87 %
10.08.2016 10:18 12,0 C 96 % 1017,9 hPa 0,2 l/m 9,6 km/h (2 Bft) W-SW 245 0 min 0,000 mm 0,0 UV-I 53 W/m 11,4 C 10,0 C 16,1 km/h (3 Bft) 100,00 %
10.08.2016 10:20 11,9 C 95 % 1017,9 hPa 0,0 l/m 7,0 km/h (2 Bft) W-SW 247 0 min 0,000 mm 0,0 UV-I 54 W/m 11,1 C 11,5 C 11,3 km/h (2 Bft) 100,00 %
10.08.2016 10:22 11,9 C 95 % 1017,9 hPa 0,2 l/m 8,4 km/h (2 Bft) SW 235 0 min 0,000 mm 0,0 UV-I 56 W/m 11,1 C 10,6 C 12,9 km/h (3 Bft) 97,62 %
10.08.2016 10:24 11,9 C 95 % 1017,9 hPa 0,0 l/m 9,3 km/h (2 Bft) SW 236 0 min 0,000 mm 0,0 UV-I 56 W/m 11,1 C 10,1 C 14,5 km/h (3 Bft) 100,00 %
10.08.2016 10:26 11,9 C 95 % 1017,8 hPa 0,0 l/m 8,9 km/h (2 Bft) S-SW 204 0 min 0,000 mm 0,0 UV-I 56 W/m 11,1 C 10,3 C 12,9 km/h (3 Bft) 100,00 %
10.08.2016 10:28 11,9 C 95 % 1017,7 hPa 0,0 l/m 10,7 km/h (2 Bft) S-SW 196 0 min 0,000 mm 0,0 UV-I 56 W/m 11,1 C 9,3 C 14,5 km/h (3 Bft) 100,00 %
10.08.2016 10:30 11,9 C 95 % 1017,8 hPa 0,2 l/m 9,7 km/h (2 Bft) S-SW 198 0 min 0,000 mm 0,0 UV-I 56 W/m 11,1 C 9,9 C 14,5 km/h (3 Bft) 100,00 %
10.08.2016 10:32 11,9 C 95 % 1017,8 hPa 0,0 l/m 9,8 km/h (2 Bft) S-SW 209 0 min 0,000 mm 0,0 UV-I 58 W/m 11,1 C 9,8 C 17,7 km/h (3 Bft) 100,00 %
10.08.2016 10:34 11,9 C 96 % 1017,7 hPa 0,2 l/m 8,5 km/h (2 Bft) S 188 0 min 0,000 mm 0,0 UV-I 62 W/m 11,3 C 10,5 C 12,9 km/h (3 Bft) 100,00 %
10.08.2016 10:36 11,9 C 95 % 1017,8 hPa 0,0 l/m 10,6 km/h (2 Bft) S-SW 196 0 min 0,000 mm 0,0 UV-I 69 W/m 11,1 C 9,4 C 14,5 km/h (3 Bft) 100,00 %
10.08.2016 10:38 12,0 C 96 % 1017,7 hPa 0,0 l/m 9,0 km/h (2 Bft) S-SW 209 0 min 0,000 mm 0,1 UV-I 74 W/m 11,4 C 10,4 C 14,5 km/h (3 Bft) 98,11 %
10.08.2016 10:40 12,0 C 96 % 1017,8 hPa 0,0 l/m 6,5 km/h (2 Bft) S-SW 194 0 min 0,000 mm 0,5 UV-I 78 W/m 11,4 C 12,0 C 11,3 km/h (2 Bft) 100,00 %
10.08.2016 10:42 12,0 C 96 % 1017,7 hPa 0,0 l/m 10,3 km/h (2 Bft) S 178 0 min 0,000 mm 0,5 UV-I 82 W/m 11,4 C 9,6 C 16,1 km/h (3 Bft) 100,00 %
10.08.2016 10:44 12,0 C 96 % 1017,8 hPa 0,0 l/m 6,8 km/h (2 Bft) S-SW 195 0 min 0,000 mm 0,5 UV-I 84 W/m 11,4 C 11,7 C 16,1 km/h (3 Bft) 100,00 %
10.08.2016 10:46 12,1 C 95 % 1017,8 hPa 0,0 l/m 9,3 km/h (2 Bft) S 186 0 min 0,000 mm 0,5 UV-I 84 W/m 11,3 C 10,3 C 14,5 km/h (3 Bft) 100,00 %
10.08.2016 10:48 12,1 C 96 % 1017,8 hPa 0,2 l/m 7,0 km/h (2 Bft) S-SW 213 0 min 0,000 mm 0,5 UV-I 82 W/m 11,5 C 11,7 C 11,3 km/h (2 Bft) 100,00 %
10.08.2016 10:50 12,1 C 95 % 1017,8 hPa 0,0 l/m 7,5 km/h (2 Bft) S 186 0 min 0,000 mm 0,5 UV-I 80 W/m 11,3 C 11,4 C 11,3 km/h (2 Bft) 100,00 %
10.08.2016 10:52 12,1 C 95 % 1017,8 hPa 0,0 l/m 8,0 km/h (2 Bft) W-SW 246 0 min 0,000 mm 0,5 UV-I 80 W/m 11,3 C 11,1 C 12,9 km/h (3 Bft) 100,00 %
10.08.2016 10:54 12,1 C 95 % 1017,8 hPa 0,0 l/m 8,2 km/h (2 Bft) SW 226 0 min 0,000 mm 0,5 UV-I 81 W/m 11,3 C 10,9 C 11,3 km/h (2 Bft) 100,00 %
10.08.2016 10:56 12,2 C 96 % 1017,8 hPa 0,0 l/m 7,0 km/h (2 Bft) S-SW 198 0 min 0,000 mm 0,5 UV-I 83 W/m 11,6 C 11,8 C 11,3 km/h (2 Bft) 100,00 %
10.08.2016 10:58 12,2 C 95 % 1017,8 hPa 0,0 l/m 6,6 km/h (2 Bft) S-SW 212 0 min 0,000 mm 0,5 UV-I 83 W/m 11,4 C 12,1 C 11,3 km/h (2 Bft) 100,00 %
10.08.2016 11:00 12,2 C 95 % 1017,8 hPa 0,0 l/m 6,5 km/h (2 Bft) S 184 0 min 0,026 mm 0,5 UV-I 84 W/m 11,4 C 12,2 C 9,7 km/h (2 Bft) 100,00 %
10.08.2016 11:02 12,3 C 95 % 1017,8 hPa 0,0 l/m 9,2 km/h (2 Bft) W 259 0 min 0,000 mm 0,5 UV-I 84 W/m 11,5 C 10,6 C 12,9 km/h (3 Bft) 100,00 %
10.08.2016 11:04 12,3 C 95 % 1017,8 hPa 0,0 l/m 5,3 km/h (1 Bft) S-SW 201 0 min 0,000 mm 0,5 UV-I 86 W/m 11,5 C 12,3 C 9,7 km/h (2 Bft) 97,37 %
10.08.2016 11:06 12,3 C 95 % 1017,8 hPa 0,0 l/m 4,8 km/h (1 Bft) W-SW 238 0 min 0,000 mm 0,6 UV-I 88 W/m 11,5 C 12,3 C 8,0 km/h (2 Bft) 100,00 %
10.08.2016 11:08 12,3 C 95 % 1017,8 hPa 0,2 l/m 5,7 km/h (1 Bft) S-SO 161 0 min 0,000 mm 0,6 UV-I 90 W/m 11,5 C 12,3 C 11,3 km/h (2 Bft) 100,00 %
10.08.2016 11:10 12,3 C 95 % 1017,8 hPa 0,0 l/m 6,7 km/h (2 Bft) S-SW 196 0 min 0,000 mm 0,6 UV-I 89 W/m 11,5 C 12,1 C 11,3 km/h (2 Bft) 100,00 %
10.08.2016 11:12 12,3 C 95 % 1017,8 hPa 0,0 l/m 5,6 km/h (1 Bft) SW 233 0 min 0,000 mm 0,6 UV-I 88 W/m 11,5 C 12,3 C 9,7 km/h (2 Bft) 98,00 %
10.08.2016 11:14 12,3 C 95 % 1017,9 hPa 0,0 l/m 7,2 km/h (2 Bft) S 185 0 min 0,000 mm 0,6 UV-I 88 W/m 11,5 C 11,8 C 12,9 km/h (3 Bft) 96,00 %
10.08.2016 11:16 12,3 C 95 % 1017,8 hPa 0,0 l/m 7,7 km/h (2 Bft) SW 217 0 min 0,000 mm 0,6 UV-I 89 W/m 11,5 C 11,5 C 12,9 km/h (3 Bft) 94,74 %
10.08.2016 11:18 12,4 C 95 % 1017,8 hPa 0,0 l/m 7,5 km/h (2 Bft) SW 218 0 min 0,000 mm 0,6 UV-I 90 W/m 11,6 C 11,7 C 9,7 km/h (2 Bft) 96,23 %
10.08.2016 11:20 12,4 C 95 % 1017,8 hPa 0,0 l/m 4,8 km/h (1 Bft) SW 214 0 min 0,000 mm 0,6 UV-I 91 W/m 11,6 C 12,4 C 9,7 km/h (2 Bft) 97,56 %
10.08.2016 11:22 12,4 C 95 % 1017,7 hPa 0,0 l/m 4,6 km/h (1 Bft) S 191 0 min 0,000 mm 0,6 UV-I 94 W/m 11,6 C 12,4 C 8,0 km/h (2 Bft) 98,00 %
10.08.2016 11:24 12,4 C 95 % 1017,7 hPa 0,0 l/m 4,6 km/h (1 Bft) SW 218 0 min 0,000 mm 0,6 UV-I 96 W/m 11,6 C 12,4 C 8,0 km/h (2 Bft) 98,00 %
10.08.2016 11:26 12,4 C 95 % 1017,7 hPa 0,0 l/m 3,9 km/h (1 Bft) S-SW 206 0 min 0,000 mm 0,6 UV-I 99 W/m 11,6 C 12,4 C 6,4 km/h (2 Bft) 97,56 %
10.08.2016 11:28 12,4 C 95 % 1017,7 hPa 0,0 l/m 4,6 km/h (1 Bft) S-SW 203 0 min 0,000 mm 0,7 UV-I 104 W/m 11,6 C 12,4 C 8,0 km/h (2 Bft) 97,87 %
10.08.2016 11:30 12,5 C 95 % 1017,7 hPa 0,0 l/m 4,3 km/h (1 Bft) SW 228 0 min 0,000 mm 0,7 UV-I 112 W/m 11,7 C 12,5 C 8,0 km/h (2 Bft) 96,00 %
10.08.2016 11:32 12,6 C 95 % 1017,7 hPa 0,0 l/m 5,0 km/h (1 Bft) S-SW 201 0 min 0,000 mm 0,8 UV-I 121 W/m 11,8 C 12,6 C 11,3 km/h (2 Bft) 97,56 %
10.08.2016 11:34 12,6 C 95 % 1017,7 hPa 0,2 l/m 4,1 km/h (1 Bft) SW 225 0 min 0,000 mm 0,8 UV-I 126 W/m 11,8 C 12,6 C 6,4 km/h (2 Bft) 96,23 %
10.08.2016 11:36 12,6 C 95 % 1017,7 hPa 0,0 l/m 4,4 km/h (1 Bft) SW 216 0 min 0,000 mm 0,9 UV-I 131 W/m 11,8 C 12,6 C 8,0 km/h (2 Bft) 100,00 %
10.08.2016 11:38 12,6 C 95 % 1017,7 hPa 0,0 l/m 4,2 km/h (1 Bft) S-SW 194 0 min 0,000 mm 0,9 UV-I 139 W/m 11,8 C 12,6 C 8,0 km/h (2 Bft) 96,23 %
10.08.2016 11:40 12,7 C 95 % 1017,7 hPa 0,0 l/m 5,0 km/h (1 Bft) S-SW 194 0 min 0,000 mm 1,0 UV-I 150 W/m 11,9 C 12,7 C 8,0 km/h (2 Bft) 95,12 %
10.08.2016 11:42 12,7 C 95 % 1017,8 hPa 0,0 l/m 4,5 km/h (1 Bft) S-SW 211 0 min 0,000 mm 1,1 UV-I 156 W/m 11,9 C 12,7 C 6,4 km/h (2 Bft) 95,74 %
10.08.2016 11:44 12,7 C 94 % 1017,8 hPa 0,0 l/m 6,5 km/h (2 Bft) SW 230 0 min 0,000 mm 1,1 UV-I 159 W/m 11,8 C 12,7 C 12,9 km/h (3 Bft) 98,00 %
10.08.2016 11:46 12,7 C 95 % 1017,7 hPa 0,0 l/m 5,7 km/h (1 Bft) W 262 0 min 0,000 mm 1,1 UV-I 162 W/m 11,9 C 12,7 C 9,7 km/h (2 Bft) 100,00 %
10.08.2016 11:48 12,8 C 95 % 1017,8 hPa 0,0 l/m 3,5 km/h (1 Bft) W 280 0 min 0,000 mm 1,1 UV-I 164 W/m 12,0 C 12,8 C 6,4 km/h (2 Bft) 100,00 %
10.08.2016 11:50 12,9 C 95 % 1017,8 hPa 0,0 l/m 6,6 km/h (2 Bft) W 264 0 min 0,000 mm 1,1 UV-I 169 W/m 12,1 C 12,8 C 11,3 km/h (2 Bft) 100,00 %
10.08.2016 11:52 12,8 C 95 % 1017,8 hPa 0,0 l/m 4,4 km/h (1 Bft) W-SW 255 0 min 0,000 mm 1,2 UV-I 176 W/m 12,0 C 12,8 C 6,4 km/h (2 Bft) 98,11 %
10.08.2016 11:54 12,9 C 95 % 1017,7 hPa 0,0 l/m 4,0 km/h (1 Bft) SW 227 0 min 0,000 mm 1,2 UV-I 187 W/m 12,1 C 12,9 C 6,4 km/h (2 Bft) 100,00 %
10.08.2016 11:56 12,9 C 95 % 1017,8 hPa 0,0 l/m 2,8 km/h (1 Bft) SW 236 0 min 0,000 mm 1,3 UV-I 196 W/m 12,1 C 12,9 C 4,8 km/h (1 Bft) 100,00 %
10.08.2016 11:58 12,9 C 95 % 1017,8 hPa 0,0 l/m 4,0 km/h (1 Bft) W-SW 245 0 min 0,000 mm 1,3 UV-I 195 W/m 12,1 C 12,9 C 6,4 km/h (2 Bft) 100,00 %
10.08.2016 12:00 13,0 C 95 % 1017,8 hPa 0,0 l/m 4,8 km/h (1 Bft) W 275 0 min 0,000 mm 1,3 UV-I 193 W/m 12,2 C 13,0 C 6,4 km/h (2 Bft) 100,00 %
10.08.2016 12:02 13,1 C 95 % 1017,8 hPa 0,0 l/m 4,8 km/h (1 Bft) W-SW 237 0 min 0,076 mm 1,3 UV-I 189 W/m 12,3 C 13,1 C 8,0 km/h (2 Bft) 100,00 %
10.08.2016 12:04 13,1 C 95 % 1017,8 hPa 0,0 l/m 5,3 km/h (1 Bft) SW 229 0 min 0,000 mm 1,2 UV-I 180 W/m 12,3 C 13,1 C 9,7 km/h (2 Bft) 97,87 %
10.08.2016 12:06 13,1 C 95 % 1017,9 hPa 0,0 l/m 6,1 km/h (2 Bft) SW 230 0 min 0,000 mm 1,2 UV-I 186 W/m 12,3 C 13,1 C 11,3 km/h (2 Bft) 100,00 %
10.08.2016 12:08 13,2 C 95 % 1017,9 hPa 0,0 l/m 5,0 km/h (1 Bft) SW 220 0 min 0,000 mm 1,2 UV-I 185 W/m 12,4 C 13,2 C 8,0 km/h (2 Bft) 100,00 %
10.08.2016 12:10 13,2 C 95 % 1017,9 hPa 0,2 l/m 4,3 km/h (1 Bft) W-SW 251 0 min 0,000 mm 1,2 UV-I 175 W/m 12,4 C 13,2 C 6,4 km/h (2 Bft) 100,00 %
10.08.2016 12:12 13,1 C 95 % 1017,9 hPa 0,0 l/m 5,7 km/h (1 Bft) W-SW 250 0 min 0,000 mm 1,1 UV-I 158 W/m 12,3 C 13,1 C 11,3 km/h (2 Bft) 100,00 %
10.08.2016 12:14 13,1 C 95 % 1017,9 hPa 0,0 l/m 6,7 km/h (2 Bft) W 273 0 min 0,000 mm 1,0 UV-I 146 W/m 12,3 C 12,9 C 11,3 km/h (2 Bft) 100,00 %
10.08.2016 12:16 13,1 C 95 % 1017,9 hPa 0,0 l/m 6,6 km/h (2 Bft) W-SW 256 0 min 0,000 mm 1,0 UV-I 140 W/m 12,3 C 13,0 C 11,3 km/h (2 Bft) 100,00 %
10.08.2016 12:18 13,1 C 95 % 1017,9 hPa 0,0 l/m 6,0 km/h (2 Bft) W 259 0 min 0,000 mm 1,0 UV-I 140 W/m 12,3 C 13,1 C 11,3 km/h (2 Bft) 100,00 %
10.08.2016 12:20 13,1 C 95 % 1017,9 hPa 0,0 l/m 7,4 km/h (2 Bft) W-SW 247 0 min 0,000 mm 0,9 UV-I 133 W/m 12,3 C 12,5 C 12,9 km/h (3 Bft) 100,00 %
10.08.2016 12:22 13,1 C 95 % 1017,9 hPa 0,0 l/m 4,6 km/h (1 Bft) W-SW 248 0 min 0,000 mm 1,0 UV-I 138 W/m 12,3 C 13,1 C 9,7 km/h (2 Bft) 100,00 %
10.08.2016 12:24 13,1 C 95 % 1017,9 hPa 0,2 l/m 5,7 km/h (1 Bft) W-SW 248 0 min 0,000 mm 0,9 UV-I 136 W/m 12,3 C 13,1 C 8,0 km/h (2 Bft) 97,87 %
10.08.2016 12:26 13,1 C 95 % 1017,8 hPa 0,0 l/m 4,2 km/h (1 Bft) W-SW 253 0 min 0,000 mm 0,9 UV-I 134 W/m 12,3 C 13,1 C 6,4 km/h (2 Bft) 100,00 %
10.08.2016 12:28 13,1 C 95 % 1017,7 hPa 0,0 l/m 7,5 km/h (2 Bft) SW 225 0 min 0,000 mm 0,9 UV-I 131 W/m 12,3 C 12,4 C 11,3 km/h (2 Bft) 100,00 %
10.08.2016 12:30 13,1 C 94 % 1017,7 hPa 0,0 l/m 5,3 km/h (1 Bft) W-SW 252 0 min 0,000 mm 0,9 UV-I 133 W/m 12,2 C 13,1 C 8,0 km/h (2 Bft) 98,46 %
10.08.2016 12:32 13,1 C 95 % 1017,7 hPa 0,0 l/m 6,4 km/h (2 Bft) W-SW 240 0 min 0,000 mm 0,9 UV-I 131 W/m 12,3 C 13,1 C 8,0 km/h (2 Bft) 100,00 %
10.08.2016 12:34 13,1 C 95 % 1017,7 hPa 0,0 l/m 7,5 km/h (2 Bft) SW 234 0 min 0,000 mm 0,9 UV-I 129 W/m 12,3 C 12,4 C 12,9 km/h (3 Bft) 98,11 %
10.08.2016 12:36 13,1 C 95 % 1017,6 hPa 0,0 l/m 6,6 km/h (2 Bft) SW 225 0 min 0,000 mm 1,0 UV-I 143 W/m 12,3 C 13,0 C 9,7 km/h (2 Bft) 100,00 %
10.08.2016 12:38 13,2 C 95 % 1017,6 hPa 0,0 l/m 5,1 km/h (1 Bft) S 184 0 min 0,000 mm 1,2 UV-I 167 W/m 12,4 C 13,2 C 8,0 km/h (2 Bft) 100,00 %
10.08.2016 12:40 13,1 C 95 % 1017,6 hPa 0,0 l/m 4,8 km/h (1 Bft) SW 225 0 min 0,000 mm 1,4 UV-I 200 W/m 12,3 C 13,1 C 6,4 km/h (2 Bft) 100,00 %
10.08.2016 12:42 13,2 C 94 % 1017,6 hPa 0,0 l/m 2,7 km/h (1 Bft) SW 236 0 min 0,000 mm 1,7 UV-I 235 W/m 12,3 C 13,2 C 4,8 km/h (1 Bft) 100,00 %
10.08.2016 12:44 13,3 C 94 % 1017,5 hPa 0,0 l/m 3,9 km/h (1 Bft) W-SW 258 0 min 0,000 mm 2,0 UV-I 282 W/m 12,4 C 13,3 C 8,0 km/h (2 Bft) 100,00 %
10.08.2016 12:46 13,4 C 95 % 1017,4 hPa 0,0 l/m 3,3 km/h (1 Bft) SW 232 0 min 0,000 mm 2,2 UV-I 326 W/m 12,6 C 13,4 C 4,8 km/h (1 Bft) 100,00 %
10.08.2016 12:48 13,4 C 94 % 1017,5 hPa 0,0 l/m 2,7 km/h (1 Bft) S-SW 198 0 min 0,000 mm 2,2 UV-I 315 W/m 12,5 C 13,4 C 3,2 km/h (1 Bft) 100,00 %
10.08.2016 12:50 13,6 C 93 % 1017,5 hPa 0,0 l/m 3,1 km/h (1 Bft) SW 223 0 min 0,000 mm 2,1 UV-I 312 W/m 12,5 C 13,6 C 4,8 km/h (1 Bft) 100,00 %
10.08.2016 12:52 13,6 C 93 % 1017,4 hPa 0,0 l/m 4,2 km/h (1 Bft) SW 217 0 min 0,000 mm 2,2 UV-I 323 W/m 12,5 C 13,6 C 8,0 km/h (2 Bft) 100,00 %
10.08.2016 12:54 13,6 C 92 % 1017,4 hPa 0,0 l/m 2,6 km/h (1 Bft) S-SW 202 0 min 0,000 mm 2,1 UV-I 300 W/m 12,3 C 13,6 C 4,8 km/h (1 Bft) 100,00 %
10.08.2016 12:56 13,6 C 90 % 1017,4 hPa 0,0 l/m 7,4 km/h (2 Bft) S-SW 200 0 min 0,000 mm 1,9 UV-I 277 W/m 12,0 C 13,0 C 11,3 km/h (2 Bft) 98,00 %
10.08.2016 12:58 13,6 C 91 % 1017,3 hPa 0,0 l/m 5,3 km/h (1 Bft) S-SW 192 0 min 0,000 mm 1,9 UV-I 278 W/m 12,2 C 13,6 C 8,0 km/h (2 Bft) 98,00 %
10.08.2016 13:00 13,7 C 91 % 1017,2 hPa 0,0 l/m 4,4 km/h (1 Bft) S 188 0 min 0,000 mm 2,0 UV-I 293 W/m 12,3 C 13,7 C 6,4 km/h (2 Bft) 100,00 %
10.08.2016 13:02 13,7 C 91 % 1017,3 hPa 0,0 l/m 6,0 km/h (2 Bft) SW 229 0 min 0,101 mm 2,0 UV-I 287 W/m 12,3 C 13,7 C 9,7 km/h (2 Bft) 98,18 %
10.08.2016 13:04 13,7 C 90 % 1017,2 hPa 0,0 l/m 5,0 km/h (1 Bft) SW 234 0 min 0,000 mm 1,8 UV-I 270 W/m 12,1 C 13,7 C 9,7 km/h (2 Bft) 100,00 %
10.08.2016 13:06 13,7 C 90 % 1017,2 hPa 0,0 l/m 6,1 km/h (2 Bft) SW 226 0 min 0,000 mm 1,8 UV-I 258 W/m 12,1 C 13,7 C 9,7 km/h (2 Bft) 98,11 %
10.08.2016 13:08 13,8 C 89 % 1017,2 hPa 0,0 l/m 7,9 km/h (2 Bft) SW 223 0 min 0,000 mm 1,7 UV-I 252 W/m 12,0 C 12,9 C 12,9 km/h (3 Bft) 100,00 %
10.08.2016 13:10 13,8 C 90 % 1017,2 hPa 0,0 l/m 6,8 km/h (2 Bft) S-SW 213 0 min 0,000 mm 1,7 UV-I 245 W/m 12,2 C 13,6 C 11,3 km/h (2 Bft) 97,87 %
10.08.2016 13:12 13,8 C 90 % 1017,2 hPa 0,0 l/m 5,8 km/h (2 Bft) SW 229 0 min 0,000 mm 1,6 UV-I 238 W/m 12,2 C 13,8 C 8,0 km/h (2 Bft) 97,44 %
10.08.2016 13:14 13,8 C 89 % 1017,2 hPa 0,0 l/m 4,7 km/h (1 Bft) S-SW 205 0 min 0,000 mm 1,6 UV-I 231 W/m 12,0 C 13,8 C 8,0 km/h (2 Bft) 98,00 %
10.08.2016 13:16 13,8 C 89 % 1017,2 hPa 0,0 l/m 5,3 km/h (1 Bft) S 180 0 min 0,000 mm 1,5 UV-I 218 W/m 12,0 C 13,8 C 8,0 km/h (2 Bft) 97,87 %
10.08.2016 13:18 13,8 C 89 % 1017,3 hPa 0,0 l/m 4,9 km/h (1 Bft) S-SW 204 0 min 0,000 mm 1,4 UV-I 204 W/m 12,0 C 13,8 C 8,0 km/h (2 Bft) 95,45 %
10.08.2016 13:20 13,7 C 87 % 1017,2 hPa 0,0 l/m 6,7 km/h (2 Bft) S-SW 202 0 min 0,000 mm 1,4 UV-I 199 W/m 11,6 C 13,5 C 12,9 km/h (3 Bft) 95,74 %
10.08.2016 13:22 13,7 C 86 % 1017,2 hPa 0,0 l/m 5,3 km/h (1 Bft) SW 229 0 min 0,000 mm 1,4 UV-I 200 W/m 11,4 C 13,7 C 8,0 km/h (2 Bft) 96,23 %
10.08.2016 13:24 13,7 C 87 % 1017,2 hPa 0,0 l/m 3,5 km/h (1 Bft) S 186 0 min 0,000 mm 1,3 UV-I 198 W/m 11,6 C 13,7 C 6,4 km/h (2 Bft) 92,11 %
10.08.2016 13:26 13,7 C 88 % 1017,2 hPa 0,0 l/m 1,8 km/h (1 Bft) S 186 0 min 0,000 mm 1,3 UV-I 193 W/m 11,7 C 13,7 C 3,2 km/h (1 Bft) 97,87 %
10.08.2016 13:28 13,8 C 87 % 1017,2 hPa 0,0 l/m 1,9 km/h (1 Bft) S 186 0 min 0,000 mm 1,3 UV-I 185 W/m 11,7 C 13,8 C 4,8 km/h (1 Bft) 97,87 %
10.08.2016 13:30 13,8 C 87 % 1017,1 hPa 0,0 l/m 3,5 km/h (1 Bft) S-SO 159 0 min 0,000 mm 1,2 UV-I 179 W/m 11,7 C 13,8 C 6,4 km/h (2 Bft) 97,87 %
10.08.2016 13:32 13,8 C 88 % 1017,0 hPa 0,0 l/m 3,2 km/h (1 Bft) S-SO 149 0 min 0,000 mm 1,2 UV-I 179 W/m 11,8 C 13,8 C 6,4 km/h (2 Bft) 96,43 %
10.08.2016 13:34 13,9 C 88 % 1017,0 hPa 0,0 l/m 2,5 km/h (1 Bft) S-SO 160 0 min 0,000 mm 1,2 UV-I 185 W/m 11,9 C 13,9 C 6,4 km/h (2 Bft) 94,29 %
10.08.2016 13:36 13,9 C 87 % 1017,1 hPa 0,0 l/m 3,2 km/h (1 Bft) S 181 0 min 0,000 mm 1,3 UV-I 198 W/m 11,8 C 13,9 C 6,4 km/h (2 Bft) 96,97 %
10.08.2016 13:38 13,9 C 88 % 1017,1 hPa 0,0 l/m 5,1 km/h (1 Bft) S 170 0 min 0,000 mm 1,4 UV-I 212 W/m 11,9 C 13,9 C 8,0 km/h (2 Bft) 96,88 %
10.08.2016 13:40 13,9 C 88 % 1017,1 hPa 0,0 l/m 4,2 km/h (1 Bft) S-SO 159 0 min 0,000 mm 1,5 UV-I 220 W/m 11,9 C 13,9 C 9,7 km/h (2 Bft) 97,87 %
10.08.2016 13:42 14,0 C 88 % 1017,1 hPa 0,0 l/m 4,2 km/h (1 Bft) S-SO 168 0 min 0,000 mm 1,5 UV-I 217 W/m 12,0 C 14,0 C 8,0 km/h (2 Bft) 98,11 %
10.08.2016 13:44 14,0 C 89 % 1017,1 hPa 0,0 l/m 3,9 km/h (1 Bft) SO 142 0 min 0,000 mm 1,4 UV-I 207 W/m 12,2 C 14,0 C 6,4 km/h (2 Bft) 95,24 %
10.08.2016 13:46 14,1 C 91 % 1017,1 hPa 0,0 l/m 2,1 km/h (1 Bft) S-SO 163 0 min 0,000 mm 1,3 UV-I 196 W/m 12,7 C 14,1 C 4,8 km/h (1 Bft) 100,00 %
10.08.2016 13:48 14,1 C 90 % 1017,1 hPa 0,0 l/m 2,4 km/h (1 Bft) S-SO 166 0 min 0,000 mm 1,3 UV-I 192 W/m 12,5 C 14,1 C 6,4 km/h (2 Bft) 100,00 %
10.08.2016 13:50 14,1 C 90 % 1017,1 hPa 0,0 l/m 3,4 km/h (1 Bft) S 182 0 min 0,000 mm 1,3 UV-I 191 W/m 12,5 C 14,1 C 6,4 km/h (2 Bft) 100,00 %
10.08.2016 13:52 14,1 C 89 % 1017,1 hPa 0,0 l/m 3,1 km/h (1 Bft) SO 140 0 min 0,000 mm 1,3 UV-I 192 W/m 12,3 C 14,1 C 6,4 km/h (2 Bft) 100,00 %
10.08.2016 13:54 14,2 C 89 % 1017,2 hPa 0,0 l/m 2,0 km/h (1 Bft) S-SO 156 0 min 0,000 mm 1,3 UV-I 196 W/m 12,4 C 14,2 C 8,0 km/h (2 Bft) 100,00 %
10.08.2016 13:56 14,2 C 89 % 1017,2 hPa 0,0 l/m 5,2 km/h (1 Bft) S-SO 150 0 min 0,000 mm 1,3 UV-I 205 W/m 12,4 C 14,2 C 9,7 km/h (2 Bft) 100,00 %
10.08.2016 13:58 14,2 C 87 % 1017,1 hPa 0,0 l/m 4,3 km/h (1 Bft) S-SW 202 0 min 0,000 mm 1,4 UV-I 216 W/m 12,1 C 14,2 C 6,4 km/h (2 Bft) 100,00 %
10.08.2016 14:00 14,3 C 87 % 1017,1 hPa 0,0 l/m 2,8 km/h (1 Bft) S-SO 166 0 min 0,102 mm 1,5 UV-I 229 W/m 12,2 C 14,3 C 6,4 km/h (2 Bft) 100,00 %
10.08.2016 14:02 14,3 C 87 % 1017,1 hPa 0,0 l/m 2,6 km/h (1 Bft) S-SO 166 0 min 0,000 mm 1,6 UV-I 246 W/m 12,2 C 14,3 C 4,8 km/h (1 Bft) 97,87 %
10.08.2016 14:04 14,3 C 88 % 1017,0 hPa 0,0 l/m 3,6 km/h (1 Bft) S 176 0 min 0,000 mm 1,7 UV-I 264 W/m 12,3 C 14,3 C 8,0 km/h (2 Bft) 100,00 %
10.08.2016 14:06 14,3 C 88 % 1016,9 hPa 0,0 l/m 0,7 km/h (0 Bft) S 176 0 min 0,000 mm 1,8 UV-I 284 W/m 12,3 C 14,3 C 3,2 km/h (1 Bft) 100,00 %
10.08.2016 14:08 14,3 C 87 % 1016,9 hPa 0,0 l/m 1,4 km/h (1 Bft) S 175 0 min 0,000 mm 1,8 UV-I 284 W/m 12,2 C 14,3 C 3,2 km/h (1 Bft) 100,00 %
10.08.2016 14:10 14,3 C 87 % 1017,0 hPa 0,0 l/m 3,9 km/h (1 Bft) S 185 0 min 0,000 mm 1,8 UV-I 271 W/m 12,2 C 14,3 C 6,4 km/h (2 Bft) 100,00 %
10.08.2016 14:12 14,4 C 88 % 1017,0 hPa 0,0 l/m 5,4 km/h (1 Bft) S-SW 195 0 min 0,000 mm 1,7 UV-I 254 W/m 12,4 C 14,4 C 8,0 km/h (2 Bft) 98,11 %
10.08.2016 14:14 14,4 C 88 % 1017,0 hPa 0,0 l/m 3,2 km/h (1 Bft) S-SO 165 0 min 0,000 mm 1,6 UV-I 244 W/m 12,4 C 14,4 C 8,0 km/h (2 Bft) 97,87 %
10.08.2016 14:16 14,5 C 89 % 1016,9 hPa 0,0 l/m 5,3 km/h (1 Bft) S 188 0 min 0,000 mm 1,6 UV-I 248 W/m 12,7 C 14,5 C 9,7 km/h (2 Bft) 100,00 %
10.08.2016 14:18 14,5 C 87 % 1016,9 hPa 0,0 l/m 3,4 km/h (1 Bft) S 178 0 min 0,000 mm 1,7 UV-I 262 W/m 12,4 C 14,5 C 6,4 km/h (2 Bft) 100,00 %
10.08.2016 14:20 14,6 C 86 % 1016,9 hPa 0,0 l/m 3,4 km/h (1 Bft) S 171 0 min 0,000 mm 1,7 UV-I 275 W/m 12,3 C 14,6 C 6,4 km/h (2 Bft) 96,00 %
10.08.2016 14:22 14,6 C 87 % 1016,9 hPa 0,0 l/m 5,0 km/h (1 Bft) S 174 0 min 0,000 mm 1,7 UV-I 272 W/m 12,5 C 14,6 C 9,7 km/h (2 Bft) 100,00 %
10.08.2016 14:24 14,6 C 87 % 1016,9 hPa 0,0 l/m 5,5 km/h (1 Bft) S 191 0 min 0,000 mm 1,7 UV-I 260 W/m 12,5 C 14,6 C 8,0 km/h (2 Bft) 100,00 %
10.08.2016 14:26 14,6 C 87 % 1016,8 hPa 0,0 l/m 5,1 km/h (1 Bft) S-SO 165 0 min 0,000 mm 1,5 UV-I 244 W/m 12,5 C 14,6 C 8,0 km/h (2 Bft) 100,00 %
10.08.2016 14:28 14,6 C 87 % 1016,9 hPa 0,0 l/m 5,6 km/h (1 Bft) S-SW 210 0 min 0,000 mm 1,5 UV-I 229 W/m 12,5 C 14,6 C 8,0 km/h (2 Bft) 98,00 %
10.08.2016 14:30 14,7 C 87 % 1016,8 hPa 0,0 l/m 4,2 km/h (1 Bft) S 169 0 min 0,000 mm 1,4 UV-I 222 W/m 12,6 C 14,7 C 8,0 km/h (2 Bft) 100,00 %
10.08.2016 14:32 14,6 C 85 % 1016,8 hPa 0,0 l/m 3,9 km/h (1 Bft) S-SO 161 0 min 0,000 mm 1,4 UV-I 223 W/m 12,1 C 14,6 C 6,4 km/h (2 Bft) 100,00 %
10.08.2016 14:34 14,6 C 86 % 1016,8 hPa 0,0 l/m 2,9 km/h (1 Bft) S-SO 163 0 min 0,000 mm 1,4 UV-I 227 W/m 12,3 C 14,6 C 8,0 km/h (2 Bft) 100,00 %
10.08.2016 14:36 14,6 C 86 % 1016,7 hPa 0,0 l/m 2,2 km/h (1 Bft) S-SO 162 0 min 0,000 mm 1,4 UV-I 234 W/m 12,3 C 14,6 C 6,4 km/h (2 Bft) 100,00 %
10.08.2016 14:38 14,6 C 88 % 1016,8 hPa 0,0 l/m 5,7 km/h (1 Bft) S 183 0 min 0,000 mm 1,5 UV-I 250 W/m 12,6 C 14,6 C 8,0 km/h (2 Bft) 100,00 %
10.08.2016 14:40 14,7 C 87 % 1016,8 hPa 0,0 l/m 4,8 km/h (1 Bft) W-SW 239 0 min 0,000 mm 1,6 UV-I 258 W/m 12,6 C 14,7 C 6,4 km/h (2 Bft) 95,74 %
10.08.2016 14:42 14,8 C 85 % 1016,8 hPa 0,0 l/m 7,2 km/h (2 Bft) W 273 0 min 0,000 mm 1,5 UV-I 255 W/m 12,3 C 14,3 C 11,3 km/h (2 Bft) 100,00 %
10.08.2016 14:44 14,8 C 86 % 1016,8 hPa 0,0 l/m 4,6 km/h (1 Bft) W-SW 250 0 min 0,000 mm 1,5 UV-I 245 W/m 12,5 C 14,8 C 8,0 km/h (2 Bft) 100,00 %
10.08.2016 14:46 14,9 C 86 % 1016,7 hPa 0,0 l/m 3,7 km/h (1 Bft) W 279 0 min 0,000 mm 1,4 UV-I 235 W/m 12,6 C 14,9 C 9,7 km/h (2 Bft) 100,00 %
10.08.2016 14:48 14,9 C 85 % 1016,7 hPa 0,0 l/m 5,1 km/h (1 Bft) S-SW 195 0 min 0,000 mm 1,3 UV-I 227 W/m 12,4 C 14,9 C 9,7 km/h (2 Bft) 100,00 %
10.08.2016 14:50 14,9 C 84 % 1016,7 hPa 0,0 l/m 4,7 km/h (1 Bft) W-SW 242 0 min 0,000 mm 1,3 UV-I 213 W/m 12,2 C 14,9 C 9,7 km/h (2 Bft) 100,00 %
10.08.2016 14:52 14,9 C 85 % 1016,7 hPa 0,0 l/m 6,7 km/h (2 Bft) W 269 0 min 0,000 mm 1,2 UV-I 192 W/m 12,4 C 14,7 C 11,3 km/h (2 Bft) 100,00 %
10.08.2016 14:54 14,9 C 83 % 1016,7 hPa 0,0 l/m 5,7 km/h (1 Bft) SW 215 0 min 0,000 mm 1,1 UV-I 171 W/m 12,0 C 14,9 C 11,3 km/h (2 Bft) 100,00 %
10.08.2016 14:56 14,8 C 83 % 1016,8 hPa 0,0 l/m 4,6 km/h (1 Bft) S-SO 161 0 min 0,000 mm 0,9 UV-I 155 W/m 11,9 C 14,8 C 8,0 km/h (2 Bft) 100,00 %
10.08.2016 14:58 14,8 C 84 % 1016,8 hPa 0,0 l/m 5,8 km/h (2 Bft) SW 222 0 min 0,000 mm 0,9 UV-I 149 W/m 12,1 C 14,8 C 8,0 km/h (2 Bft) 100,00 %
10.08.2016 15:00 14,7 C 84 % 1016,7 hPa 0,0 l/m 4,9 km/h (1 Bft) S-SW 194 0 min 0,000 mm 0,9 UV-I 149 W/m 12,0 C 14,7 C 8,0 km/h (2 Bft) 100,00 %
10.08.2016 15:02 14,7 C 84 % 1016,7 hPa 0,0 l/m 3,8 km/h (1 Bft) SW 232 0 min 0,127 mm 0,9 UV-I 163 W/m 12,0 C 14,7 C 6,4 km/h (2 Bft) 100,00 %
10.08.2016 15:04 14,7 C 86 % 1016,7 hPa 0,0 l/m 2,0 km/h (1 Bft) SW 232 0 min 0,000 mm 1,1 UV-I 202 W/m 12,4 C 14,7 C 3,2 km/h (1 Bft) 97,62 %
10.08.2016 15:06 14,8 C 85 % 1016,7 hPa 0,0 l/m 2,4 km/h (1 Bft) SW 236 0 min 0,000 mm 1,3 UV-I 231 W/m 12,3 C 14,8 C 4,8 km/h (1 Bft) 100,00 %
10.08.2016 15:08 14,8 C 84 % 1016,7 hPa 0,0 l/m 3,7 km/h (1 Bft) W-SW 246 0 min 0,000 mm 1,3 UV-I 228 W/m 12,1 C 14,8 C 4,8 km/h (1 Bft) 100,00 %
10.08.2016 15:10 14,9 C 86 % 1016,8 hPa 0,0 l/m 1,5 km/h (1 Bft) W-SW 246 0 min 0,000 mm 1,3 UV-I 227 W/m 12,6 C 14,9 C 3,2 km/h (1 Bft) 100,00 %
10.08.2016 15:12 14,9 C 86 % 1016,8 hPa 0,0 l/m 2,7 km/h (1 Bft) W-SW 246 0 min 0,000 mm 1,5 UV-I 242 W/m 12,6 C 14,9 C 4,8 km/h (1 Bft) 100,00 %
10.08.2016 15:14 14,9 C 84 % 1016,8 hPa 0,0 l/m 3,1 km/h (1 Bft) W-SW 248 0 min 0,000 mm 1,6 UV-I 254 W/m 12,2 C 14,9 C 4,8 km/h (1 Bft) 97,56 %
10.08.2016 15:16 15,0 C 85 % 1016,8 hPa 0,0 l/m 3,8 km/h (1 Bft) W-SW 241 0 min 0,000 mm 1,6 UV-I 272 W/m 12,5 C 15,0 C 6,4 km/h (2 Bft) 98,00 %
10.08.2016 15:18 15,1 C 85 % 1016,9 hPa 0,0 l/m 4,4 km/h (1 Bft) S 178 0 min 0,000 mm 1,7 UV-I 280 W/m 12,6 C 15,1 C 11,3 km/h (2 Bft) 97,87 %
10.08.2016 15:20 15,1 C 84 % 1016,9 hPa 0,0 l/m 4,6 km/h (1 Bft) SW 219 0 min 0,000 mm 1,7 UV-I 284 W/m 12,4 C 15,1 C 8,0 km/h (2 Bft) 96,23 %
10.08.2016 15:22 15,1 C 85 % 1016,9 hPa 0,0 l/m 4,9 km/h (1 Bft) S 175 0 min 0,000 mm 1,7 UV-I 280 W/m 12,6 C 15,1 C 8,0 km/h (2 Bft) 97,37 %
10.08.2016 15:24 15,1 C 85 % 1016,9 hPa 0,0 l/m 5,0 km/h (1 Bft) W-SW 238 0 min 0,000 mm 1,5 UV-I 259 W/m 12,6 C 15,1 C 8,0 km/h (2 Bft) 96,23 %
10.08.2016 15:26 15,2 C 86 % 1016,9 hPa 0,0 l/m 5,6 km/h (1 Bft) W-SW 257 0 min 0,000 mm 1,5 UV-I 260 W/m 12,9 C 15,2 C 8,0 km/h (2 Bft) 98,00 %
10.08.2016 15:28 15,2 C 86 % 1016,9 hPa 0,0 l/m 4,5 km/h (1 Bft) W-SW 246 0 min 0,000 mm 1,7 UV-I 295 W/m 12,9 C 15,2 C 8,0 km/h (2 Bft) 94,74 %
10.08.2016 15:30 15,2 C 85 % 1016,9 hPa 0,0 l/m 4,4 km/h (1 Bft) W 268 0 min 0,000 mm 2,0 UV-I 348 W/m 12,7 C 15,2 C 9,7 km/h (2 Bft) 98,21 %
10.08.2016 15:32 15,3 C 85 % 1016,9 hPa 0,0 l/m 5,5 km/h (1 Bft) W-SW 257 0 min 0,000 mm 2,0 UV-I 370 W/m 12,8 C 15,3 C 9,7 km/h (2 Bft) 97,14 %
10.08.2016 15:34 15,3 C 85 % 1016,9 hPa 0,0 l/m 7,1 km/h (2 Bft) W 267 0 min 0,000 mm 2,0 UV-I 375 W/m 12,8 C 14,9 C 11,3 km/h (2 Bft) 98,21 %
10.08.2016 15:36 15,4 C 84 % 1016,8 hPa 0,0 l/m 6,9 km/h (2 Bft) W-SW 246 2 min 0,000 mm 2,0 UV-I 410 W/m 12,7 C 15,1 C 12,9 km/h (3 Bft) 96,00 %
10.08.2016 15:38 15,4 C 82 % 1016,8 hPa 0,0 l/m 3,7 km/h (1 Bft) W-SW 248 0 min 0,000 mm 2,0 UV-I 381 W/m 12,3 C 15,4 C 8,0 km/h (2 Bft) 97,37 %
10.08.2016 15:40 15,6 C 84 % 1016,8 hPa 0,0 l/m 6,6 km/h (2 Bft) W-SW 252 2 min 0,000 mm 2,2 UV-I 425 W/m 12,9 C 15,5 C 12,9 km/h (3 Bft) 96,00 %
10.08.2016 15:42 15,6 C 84 % 1016,7 hPa 0,0 l/m 6,7 km/h (2 Bft) S 180 2 min 0,000 mm 2,2 UV-I 422 W/m 12,9 C 15,4 C 11,3 km/h (2 Bft) 96,00 %
10.08.2016 15:44 15,6 C 82 % 1016,8 hPa 0,0 l/m 7,1 km/h (2 Bft) S-SW 211 0 min 0,000 mm 1,9 UV-I 357 W/m 12,5 C 15,2 C 9,7 km/h (2 Bft) 94,87 %
10.08.2016 15:46 15,6 C 78 % 1016,8 hPa 0,0 l/m 4,8 km/h (1 Bft) W-SW 240 0 min 0,000 mm 1,8 UV-I 328 W/m 11,8 C 15,6 C 9,7 km/h (2 Bft) 98,00 %
10.08.2016 15:48 15,5 C 79 % 1016,7 hPa 0,0 l/m 3,9 km/h (1 Bft) S 191 0 min 0,000 mm 1,8 UV-I 327 W/m 11,9 C 15,5 C 6,4 km/h (2 Bft) 98,11 %
10.08.2016 15:50 15,6 C 81 % 1016,7 hPa 0,0 l/m 6,2 km/h (2 Bft) S-SW 197 0 min 0,000 mm 1,7 UV-I 314 W/m 12,3 C 15,6 C 9,7 km/h (2 Bft) 100,00 %
10.08.2016 15:52 15,6 C 79 % 1016,8 hPa 0,0 l/m 5,3 km/h (1 Bft) W-SW 253 0 min 0,000 mm 1,6 UV-I 303 W/m 12,0 C 15,6 C 9,7 km/h (2 Bft) 100,00 %
10.08.2016 15:54 15,7 C 82 % 1016,8 hPa 0,0 l/m 6,9 km/h (2 Bft) SW 224 0 min 0,000 mm 1,5 UV-I 288 W/m 12,6 C 15,4 C 9,7 km/h (2 Bft) 98,00 %
10.08.2016 15:56 15,7 C 82 % 1016,8 hPa 0,0 l/m 6,4 km/h (2 Bft) S-SW 212 0 min 0,000 mm 1,5 UV-I 272 W/m 12,6 C 15,7 C 9,7 km/h (2 Bft) 98,00 %
10.08.2016 15:58 15,6 C 79 % 1016,7 hPa 0,0 l/m 4,9 km/h (1 Bft) S-SW 205 0 min 0,000 mm 1,4 UV-I 251 W/m 12,0 C 15,6 C 8,0 km/h (2 Bft) 100,00 %
10.08.2016 16:00 15,5 C 81 % 1016,7 hPa 0,0 l/m 6,1 km/h (2 Bft) W-SW 241 0 min 0,152 mm 1,1 UV-I 202 W/m 12,3 C 15,5 C 11,3 km/h (2 Bft) 98,21 %
10.08.2016 16:02 15,4 C 81 % 1016,7 hPa 0,0 l/m 4,2 km/h (1 Bft) SW 221 0 min 0,000 mm 0,9 UV-I 162 W/m 12,2 C 15,4 C 8,0 km/h (2 Bft) 100,00 %
10.08.2016 16:04 15,3 C 80 % 1016,7 hPa 0,0 l/m 5,5 km/h (1 Bft) S-SW 198 0 min 0,000 mm 0,8 UV-I 140 W/m 11,9 C 15,3 C 9,7 km/h (2 Bft) 100,00 %
10.08.2016 16:06 15,3 C 82 % 1016,7 hPa 0,0 l/m 5,0 km/h (1 Bft) S-SW 211 0 min 0,000 mm 0,6 UV-I 121 W/m 12,2 C 15,3 C 11,3 km/h (2 Bft) 100,00 %
10.08.2016 16:08 15,2 C 80 % 1016,8 hPa 0,0 l/m 7,0 km/h (2 Bft) S-SW 195 0 min 0,000 mm 0,4 UV-I 95 W/m 11,8 C 14,9 C 11,3 km/h (2 Bft) 100,00 %
10.08.2016 16:10 15,2 C 81 % 1016,8 hPa 0,0 l/m 6,7 km/h (2 Bft) W 260 0 min 0,000 mm 0,0 UV-I 72 W/m 12,0 C 15,0 C 11,3 km/h (2 Bft) 98,31 %
10.08.2016 16:12 15,2 C 82 % 1016,8 hPa 0,0 l/m 3,9 km/h (1 Bft) S 182 0 min 0,000 mm 0,0 UV-I 63 W/m 12,1 C 15,2 C 9,7 km/h (2 Bft) 100,00 %
10.08.2016 16:14 15,1 C 82 % 1016,8 hPa 0,0 l/m 7,0 km/h (2 Bft) SW 229 0 min 0,000 mm 0,0 UV-I 56 W/m 12,0 C 14,8 C 11,3 km/h (2 Bft) 98,44 %
10.08.2016 16:16 15,1 C 81 % 1016,7 hPa 0,0 l/m 5,8 km/h (2 Bft) S-SW 205 0 min 0,000 mm 0,0 UV-I 48 W/m 11,9 C 15,1 C 12,9 km/h (3 Bft) 98,11 %
10.08.2016 16:18 15,0 C 82 % 1016,8 hPa 0,0 l/m 7,4 km/h (2 Bft) SW 220 0 min 0,000 mm 0,0 UV-I 48 W/m 12,0 C 14,4 C 11,3 km/h (2 Bft) 100,00 %
10.08.2016 16:20 14,9 C 82 % 1016,8 hPa 0,2 l/m 6,4 km/h (2 Bft) SW 234 0 min 0,000 mm 0,0 UV-I 47 W/m 11,9 C 14,9 C 11,3 km/h (2 Bft) 100,00 %
10.08.2016 16:22 14,9 C 82 % 1016,8 hPa 0,0 l/m 4,1 km/h (1 Bft) S 178 0 min 0,000 mm 0,0 UV-I 48 W/m 11,9 C 14,9 C 8,0 km/h (2 Bft) 100,00 %
10.08.2016 16:24 14,8 C 83 % 1016,8 hPa 0,0 l/m 6,3 km/h (2 Bft) W 267 0 min 0,000 mm 0,0 UV-I 48 W/m 11,9 C 14,8 C 9,7 km/h (2 Bft) 100,00 %
10.08.2016 16:26 14,8 C 83 % 1016,8 hPa 0,0 l/m 7,1 km/h (2 Bft) W-SW 248 0 min 0,000 mm 0,0 UV-I 51 W/m 11,9 C 14,4 C 11,3 km/h (2 Bft) 100,00 %
10.08.2016 16:28 14,8 C 84 % 1016,8 hPa 0,0 l/m 5,5 km/h (1 Bft) SW 224 0 min 0,000 mm 0,0 UV-I 79 W/m 12,1 C 14,8 C 9,7 km/h (2 Bft) 100,00 %
10.08.2016 16:30 14,8 C 85 % 1016,7 hPa 0,0 l/m 5,8 km/h (2 Bft) SW 235 0 min 0,000 mm 0,7 UV-I 163 W/m 12,3 C 14,8 C 9,7 km/h (2 Bft) 100,00 %
10.08.2016 16:32 14,9 C 85 % 1016,8 hPa 0,0 l/m 4,6 km/h (1 Bft) W-SW 238 0 min 0,000 mm 1,1 UV-I 250 W/m 12,4 C 14,9 C 6,4 km/h (2 Bft) 100,00 %
10.08.2016 16:34 15,0 C 85 % 1016,7 hPa 0,0 l/m 4,8 km/h (1 Bft) SW 232 0 min 0,000 mm 1,3 UV-I 284 W/m 12,5 C 15,0 C 8,0 km/h (2 Bft) 100,00 %
10.08.2016 16:36 15,2 C 82 % 1016,8 hPa 0,0 l/m 12,4 km/h (3 Bft) SW 236 2 min 0,000 mm 1,5 UV-I 366 W/m 12,1 C 12,3 C 22,5 km/h (4 Bft) 97,87 %
10.08.2016 16:38 15,4 C 82 % 1016,8 hPa 0,0 l/m 17,7 km/h (3 Bft) W-SW 241 2 min 0,000 mm 1,4 UV-I 332 W/m 12,3 C 10,9 C 29,0 km/h (5 Bft) 97,87 %
10.08.2016 16:40 15,4 C 80 % 1016,7 hPa 0,0 l/m 20,5 km/h (4 Bft) SW 236 0 min 0,000 mm 1,1 UV-I 241 W/m 12,0 C 10,1 C 30,6 km/h (5 Bft) 100,00 %
10.08.2016 16:42 15,4 C 77 % 1016,8 hPa 0,0 l/m 17,9 km/h (3 Bft) SW 235 0 min 0,000 mm 0,8 UV-I 172 W/m 11,4 C 10,8 C 27,4 km/h (4 Bft) 100,00 %
10.08.2016 16:44 15,4 C 78 % 1016,9 hPa 0,0 l/m 15,6 km/h (3 Bft) W 271 0 min 0,000 mm 0,7 UV-I 162 W/m 11,6 C 11,5 C 25,7 km/h (4 Bft) 98,53 %
10.08.2016 16:46 15,3 C 78 % 1016,9 hPa 0,0 l/m 15,4 km/h (3 Bft) W-SW 248 0 min 0,000 mm 0,7 UV-I 155 W/m 11,5 C 11,4 C 25,7 km/h (4 Bft) 97,73 %
10.08.2016 16:48 15,2 C 79 % 1017,0 hPa 0,0 l/m 17,5 km/h (3 Bft) S-SW 212 0 min 0,000 mm 0,8 UV-I 173 W/m 11,6 C 10,7 C 27,4 km/h (4 Bft) 100,00 %
10.08.2016 16:50 15,2 C 79 % 1017,0 hPa 0,0 l/m 22,9 km/h (4 Bft) W-SW 248 0 min 0,000 mm 1,0 UV-I 224 W/m 11,6 C 9,3 C 32,2 km/h (5 Bft) 100,00 %
10.08.2016 16:52 15,2 C 78 % 1017,0 hPa 0,0 l/m 18,3 km/h (3 Bft) W-SW 245 0 min 0,000 mm 1,1 UV-I 230 W/m 11,4 C 10,5 C 25,7 km/h (4 Bft) 100,00 %
10.08.2016 16:54 15,2 C 79 % 1017,0 hPa 0,0 l/m 21,6 km/h (4 Bft) SW 235 0 min 0,000 mm 0,9 UV-I 194 W/m 11,6 C 9,6 C 32,2 km/h (5 Bft) 100,00 %
10.08.2016 16:56 15,1 C 79 % 1017,0 hPa 0,0 l/m 20,9 km/h (4 Bft) W-SW 242 0 min 0,000 mm 0,9 UV-I 175 W/m 11,5 C 9,7 C 32,2 km/h (5 Bft) 100,00 %
10.08.2016 16:58 15,1 C 79 % 1017,0 hPa 0,0 l/m 17,3 km/h (3 Bft) SW 215 0 min 0,000 mm 0,8 UV-I 159 W/m 11,5 C 10,6 C 24,1 km/h (4 Bft) 100,00 %
10.08.2016 17:00 15,0 C 78 % 1017,2 hPa 0,0 l/m 25,5 km/h (4 Bft) W-SW 254 0 min 0,000 mm 0,2 UV-I 81 W/m 11,2 C 8,5 C 51,5 km/h (7 Bft) 100,00 %
10.08.2016 17:02 14,8 C 78 % 1017,3 hPa 0,0 l/m 22,9 km/h (4 Bft) W-SW 242 0 min 0,102 mm 0,0 UV-I 36 W/m 11,0 C 8,8 C 45,1 km/h (6 Bft) 100,00 %
10.08.2016 17:04 14,4 C 78 % 1017,4 hPa 0,0 l/m 18,5 km/h (3 Bft) W-SW 244 0 min 0,000 mm 0,0 UV-I 38 W/m 10,6 C 9,4 C 33,8 km/h (5 Bft) 100,00 %
10.08.2016 17:06 14,0 C 79 % 1017,5 hPa 0,0 l/m 14,9 km/h (3 Bft) W-SW 250 0 min 0,000 mm 0,0 UV-I 36 W/m 10,4 C 10,0 C 24,1 km/h (4 Bft) 100,00 %
10.08.2016 17:08 13,7 C 81 % 1017,5 hPa 0,0 l/m 17,4 km/h (3 Bft) W-SW 244 0 min 0,000 mm 0,0 UV-I 31 W/m 10,5 C 8,8 C 30,6 km/h (5 Bft) 97,37 %
10.08.2016 17:10 13,4 C 82 % 1017,6 hPa 0,0 l/m 10,9 km/h (2 Bft) W 266 0 min 0,000 mm 0,0 UV-I 27 W/m 10,4 C 10,9 C 20,9 km/h (4 Bft) 100,00 %
10.08.2016 17:12 13,2 C 83 % 1017,6 hPa 0,0 l/m 14,6 km/h (3 Bft) W-SW 254 0 min 0,000 mm 0,0 UV-I 27 W/m 10,4 C 9,2 C 29,0 km/h (5 Bft) 100,00 %
10.08.2016 17:14 12,9 C 84 % 1017,6 hPa 0,0 l/m 10,9 km/h (2 Bft) NW 310 0 min 0,000 mm 0,0 UV-I 35 W/m 10,3 C 10,4 C 22,5 km/h (4 Bft) 96,00 %
10.08.2016 17:16 12,7 C 85 % 1017,6 hPa 0,2 l/m 14,8 km/h (3 Bft) W 261 0 min 0,000 mm 0,0 UV-I 44 W/m 10,2 C 8,5 C 27,4 km/h (4 Bft) 97,56 %
10.08.2016 17:18 12,4 C 87 % 1017,7 hPa 0,0 l/m 9,6 km/h (2 Bft) W-SW 240 0 min 0,000 mm 0,0 UV-I 53 W/m 10,3 C 10,5 C 20,9 km/h (4 Bft) 97,87 %
10.08.2016 17:20 12,3 C 88 % 1017,8 hPa 0,0 l/m 9,1 km/h (2 Bft) W-NW 292 0 min 0,000 mm 0,0 UV-I 62 W/m 10,4 C 10,6 C 17,7 km/h (3 Bft) 96,23 %
10.08.2016 17:22 12,2 C 89 % 1017,8 hPa 0,0 l/m 7,9 km/h (2 Bft) W-SW 244 0 min 0,000 mm 0,0 UV-I 69 W/m 10,4 C 11,2 C 14,5 km/h (3 Bft) 97,73 %
10.08.2016 17:24 12,1 C 91 % 1017,8 hPa 0,0 l/m 7,2 km/h (2 Bft) N-NW 348 0 min 0,000 mm 0,0 UV-I 78 W/m 10,7 C 11,6 C 12,9 km/h (3 Bft) 97,56 %
10.08.2016 17:26 12,0 C 91 % 1017,8 hPa 0,2 l/m 6,3 km/h (2 Bft) W 275 0 min 0,000 mm 0,0 UV-I 89 W/m 10,6 C 12,0 C 25,7 km/h (4 Bft) 97,96 %
10.08.2016 17:28 11,9 C 91 % 1017,8 hPa 0,0 l/m 12,7 km/h (3 Bft) W 262 0 min 0,000 mm 0,0 UV-I 93 W/m 10,5 C 8,4 C 29,0 km/h (5 Bft) 97,56 %
10.08.2016 17:30 11,8 C 91 % 1017,9 hPa 0,0 l/m 10,1 km/h (2 Bft) W-SW 248 0 min 0,000 mm 0,0 UV-I 76 W/m 10,4 C 9,5 C 19,3 km/h (3 Bft) 97,87 %
10.08.2016 17:32 11,8 C 91 % 1017,8 hPa 0,0 l/m 8,9 km/h (2 Bft) W-SW 249 0 min 0,000 mm 0,0 UV-I 56 W/m 10,4 C 10,2 C 17,7 km/h (3 Bft) 98,21 %
10.08.2016 17:34 11,8 C 92 % 1017,9 hPa 0,0 l/m 7,4 km/h (2 Bft) W 267 0 min 0,000 mm 0,0 UV-I 42 W/m 10,5 C 11,1 C 11,3 km/h (2 Bft) 97,22 %
10.08.2016 17:36 11,7 C 92 % 1017,8 hPa 0,0 l/m 7,6 km/h (2 Bft) SW 236 0 min 0,000 mm 0,0 UV-I 39 W/m 10,4 C 10,9 C 14,5 km/h (3 Bft) 98,36 %
10.08.2016 17:38 11,7 C 92 % 1017,9 hPa 0,0 l/m 5,2 km/h (1 Bft) W-SW 242 0 min 0,000 mm 0,0 UV-I 43 W/m 10,4 C 11,7 C 12,9 km/h (3 Bft) 97,44 %
10.08.2016 17:40 11,7 C 93 % 1017,9 hPa 0,0 l/m 4,6 km/h (1 Bft) W 267 0 min 0,000 mm 0,0 UV-I 47 W/m 10,6 C 11,7 C 8,0 km/h (2 Bft) 94,74 %
10.08.2016 17:42 11,7 C 93 % 1017,9 hPa 0,0 l/m 6,2 km/h (2 Bft) W 265 0 min 0,000 mm 0,0 UV-I 47 W/m 10,6 C 11,7 C 14,5 km/h (3 Bft) 96,23 %
10.08.2016 17:44 11,7 C 93 % 1018,0 hPa 0,0 l/m 7,0 km/h (2 Bft) W-SW 252 0 min 0,000 mm 0,0 UV-I 46 W/m 10,6 C 11,3 C 11,3 km/h (2 Bft) 98,28 %
10.08.2016 17:46 11,7 C 93 % 1018,0 hPa 0,0 l/m 5,8 km/h (2 Bft) W-SW 239 0 min 0,000 mm 0,0 UV-I 47 W/m 10,6 C 11,7 C 11,3 km/h (2 Bft) 97,92 %
10.08.2016 17:50 11,7 C 93 % 1018,1 hPa 0,0 l/m 4,8 km/h (1 Bft) W-SW 247 0 min 0,000 mm 0,0 UV-I 47 W/m 10,6 C 11,7 C 11,3 km/h (2 Bft) 97,37 %
10.08.2016 17:55 11,6 C 93 % 1018,2 hPa 0,2 l/m 9,7 km/h (2 Bft) W-SW 247 0 min 0,000 mm 0,0 UV-I 44 W/m 10,5 C 9,5 C 14,5 km/h (3 Bft) 98,25 %
10.08.2016 18:00 11,5 C 92 % 1018,2 hPa 0,0 l/m 12,9 km/h (3 Bft) W 270 0 min 0,051 mm 0,0 UV-I 40 W/m 10,2 C 7,8 C 20,9 km/h (4 Bft) 97,37 %
10.08.2016 18:05 11,4 C 92 % 1018,2 hPa 0,0 l/m 9,7 km/h (2 Bft) W-SW 247 0 min 0,000 mm 0,0 UV-I 39 W/m 10,1 C 9,3 C 17,7 km/h (3 Bft) 97,37 %
10.08.2016 18:10 11,4 C 93 % 1018,3 hPa 0,0 l/m 11,3 km/h (2 Bft) W-SW 247 0 min 0,000 mm 0,0 UV-I 41 W/m 10,3 C 8,5 C 17,7 km/h (3 Bft) 96,49 %
10.08.2016 18:15 11,4 C 93 % 1018,3 hPa 0,0 l/m 9,7 km/h (2 Bft) SW 225 0 min 0,000 mm 0,0 UV-I 54 W/m 10,3 C 9,3 C 16,1 km/h (3 Bft) 95,61 %
10.08.2016 18:20 11,4 C 93 % 1018,4 hPa 0,0 l/m 11,3 km/h (2 Bft) SW 225 0 min 0,000 mm 0,0 UV-I 40 W/m 10,3 C 8,5 C 16,1 km/h (3 Bft) 97,37 %
10.08.2016 18:25 11,3 C 93 % 1018,4 hPa 0,0 l/m 11,3 km/h (2 Bft) SW 225 0 min 0,000 mm 0,0 UV-I 32 W/m 10,2 C 8,4 C 16,1 km/h (3 Bft) 99,12 %
10.08.2016 18:30 11,3 C 93 % 1018,4 hPa 0,0 l/m 9,7 km/h (2 Bft) SW 225 0 min 0,000 mm 0,0 UV-I 37 W/m 10,2 C 9,2 C 17,7 km/h (3 Bft) 100,00 %
10.08.2016 18:35 11,3 C 93 % 1018,4 hPa 0,0 l/m 12,9 km/h (3 Bft) SW 225 0 min 0,000 mm 0,0 UV-I 37 W/m 10,2 C 7,6 C 20,9 km/h (4 Bft) 100,00 %
10.08.2016 18:40 11,3 C 93 % 1018,3 hPa 0,0 l/m 11,3 km/h (2 Bft) SW 225 0 min 0,000 mm 0,0 UV-I 29 W/m 10,2 C 8,4 C 20,9 km/h (4 Bft) 100,00 %
10.08.2016 18:44 11,3 C 93 % 1018,3 hPa 0,0 l/m 8,4 km/h (2 Bft) S 186 0 min 0,000 mm 0,0 UV-I 26 W/m 10,2 C 10,0 C 12,9 km/h (3 Bft) 99,44 %
10.08.2016 18:46 11,3 C 93 % 1018,3 hPa 0,0 l/m 9,1 km/h (2 Bft) S-SW 207 0 min 0,000 mm 0,0 UV-I 21 W/m 10,2 C 9,5 C 12,9 km/h (3 Bft) 100,00 %
10.08.2016 18:48 11,3 C 93 % 1018,3 hPa 0,0 l/m 10,5 km/h (2 Bft) SW 226 0 min 0,000 mm 0,0 UV-I 20 W/m 10,2 C 8,8 C 16,1 km/h (3 Bft) 100,00 %
10.08.2016 18:50 11,3 C 93 % 1018,4 hPa 0,0 l/m 10,5 km/h (2 Bft) S 188 0 min 0,000 mm 0,0 UV-I 19 W/m 10,2 C 8,8 C 19,3 km/h (3 Bft) 100,00 %
10.08.2016 18:52 11,4 C 93 % 1018,3 hPa 0,0 l/m 9,2 km/h (2 Bft) S-SW 196 0 min 0,000 mm 0,0 UV-I 18 W/m 10,3 C 9,6 C 17,7 km/h (3 Bft) 97,56 %
10.08.2016 18:54 11,4 C 94 % 1018,4 hPa 0,0 l/m 11,5 km/h (2 Bft) S 191 0 min 0,000 mm 0,0 UV-I 17 W/m 10,5 C 8,4 C 14,5 km/h (3 Bft) 100,00 %
10.08.2016 18:56 11,4 C 93 % 1018,3 hPa 0,0 l/m 7,7 km/h (2 Bft) S-SO 161 0 min 0,000 mm 0,0 UV-I 16 W/m 10,3 C 10,5 C 12,9 km/h (3 Bft) 100,00 %
10.08.2016 18:58 11,4 C 93 % 1018,4 hPa 0,0 l/m 9,1 km/h (2 Bft) S-SW 198 0 min 0,000 mm 0,0 UV-I 16 W/m 10,3 C 9,6 C 14,5 km/h (3 Bft) 100,00 %
10.08.2016 19:00 11,4 C 93 % 1018,5 hPa 0,0 l/m 10,7 km/h (2 Bft) S-SW 197 0 min 0,000 mm 0,0 UV-I 16 W/m 10,3 C 8,8 C 14,5 km/h (3 Bft) 100,00 %
10.08.2016 19:02 11,4 C 93 % 1018,5 hPa 0,0 l/m 12,1 km/h (2 Bft) S 178 0 min 0,025 mm 0,0 UV-I 16 W/m 10,3 C 8,1 C 19,3 km/h (3 Bft) 100,00 %
10.08.2016 19:04 11,4 C 93 % 1018,4 hPa 0,0 l/m 12,1 km/h (2 Bft) S 187 0 min 0,000 mm 0,0 UV-I 16 W/m 10,3 C 8,1 C 17,7 km/h (3 Bft) 100,00 %
10.08.2016 19:06 11,4 C 93 % 1018,5 hPa 0,0 l/m 12,4 km/h (3 Bft) S-SW 196 0 min 0,000 mm 0,0 UV-I 14 W/m 10,3 C 7,9 C 19,3 km/h (3 Bft) 100,00 %
10.08.2016 19:08 11,4 C 93 % 1018,4 hPa 0,0 l/m 14,0 km/h (3 Bft) S-SO 163 0 min 0,000 mm 0,0 UV-I 14 W/m 10,3 C 7,2 C 20,9 km/h (4 Bft) 100,00 %
10.08.2016 19:10 11,4 C 93 % 1018,4 hPa 0,0 l/m 10,9 km/h (2 Bft) S-SO 161 0 min 0,000 mm 0,0 UV-I 14 W/m 10,3 C 8,7 C 14,5 km/h (3 Bft) 100,00 %
10.08.2016 19:12 11,4 C 93 % 1018,4 hPa 0,0 l/m 13,8 km/h (3 Bft) W-SW 240 0 min 0,000 mm 0,0 UV-I 14 W/m 10,3 C 7,3 C 19,3 km/h (3 Bft) 100,00 %
10.08.2016 19:14 11,4 C 93 % 1018,5 hPa 0,0 l/m 12,7 km/h (3 Bft) SW 226 0 min 0,000 mm 0,0 UV-I 14 W/m 10,3 C 7,8 C 20,9 km/h (4 Bft) 97,22 %
10.08.2016 19:16 11,3 C 93 % 1018,5 hPa 0,0 l/m 12,2 km/h (2 Bft) W-SW 255 0 min 0,000 mm 0,0 UV-I 14 W/m 10,2 C 7,9 C 17,7 km/h (3 Bft) 98,08 %
10.08.2016 19:18 11,3 C 93 % 1018,6 hPa 0,0 l/m 7,8 km/h (2 Bft) SW 220 0 min 0,000 mm 0,0 UV-I 15 W/m 10,2 C 10,3 C 12,9 km/h (3 Bft) 97,62 %
10.08.2016 19:20 11,3 C 93 % 1018,6 hPa 0,0 l/m 9,8 km/h (2 Bft) S-SW 207 0 min 0,000 mm 0,0 UV-I 15 W/m 10,2 C 9,1 C 16,1 km/h (3 Bft) 98,11 %
10.08.2016 19:22 11,3 C 93 % 1018,6 hPa 0,0 l/m 6,7 km/h (2 Bft) S 188 0 min 0,000 mm 0,0 UV-I 14 W/m 10,2 C 11,1 C 11,3 km/h (2 Bft) 97,37 %
10.08.2016 19:28 11,3 C 93 % 1018,6 hPa 0,0 l/m 10,4 km/h (2 Bft) SW 219 0 min 0,000 mm 0,0 UV-I 14 W/m 10,2 C 8,8 C 16,1 km/h (3 Bft) 97,33 %
10.08.2016 19:30 11,3 C 93 % 1018,6 hPa 0,0 l/m 10,6 km/h (2 Bft) SW 235 0 min 0,000 mm 0,0 UV-I 12 W/m 10,2 C 8,7 C 16,1 km/h (3 Bft) 98,00 %
10.08.2016 19:32 11,3 C 93 % 1018,5 hPa 0,0 l/m 8,2 km/h (2 Bft) W-SW 240 0 min 0,000 mm 0,0 UV-I 12 W/m 10,2 C 10,1 C 12,9 km/h (3 Bft) 97,62 %
10.08.2016 19:34 11,3 C 93 % 1018,6 hPa 0,0 l/m 10,0 km/h (2 Bft) S-SW 197 0 min 0,000 mm 0,0 UV-I 11 W/m 10,2 C 9,0 C 16,1 km/h (3 Bft) 96,00 %
10.08.2016 19:36 11,4 C 93 % 1018,6 hPa 0,0 l/m 11,5 km/h (2 Bft) SW 228 0 min 0,000 mm 0,0 UV-I 11 W/m 10,3 C 8,4 C 19,3 km/h (3 Bft) 95,12 %
10.08.2016 19:38 11,3 C 93 % 1018,7 hPa 0,0 l/m 11,1 km/h (2 Bft) W-SW 250 0 min 0,000 mm 0,0 UV-I 11 W/m 10,2 C 8,5 C 16,1 km/h (3 Bft) 96,00 %
10.08.2016 19:40 11,4 C 94 % 1018,7 hPa 0,0 l/m 12,2 km/h (2 Bft) S-SW 213 0 min 0,000 mm 0,0 UV-I 10 W/m 10,5 C 8,0 C 17,7 km/h (3 Bft) 96,00 %
10.08.2016 19:42 11,4 C 94 % 1018,7 hPa 0,0 l/m 13,6 km/h (3 Bft) SW 232 0 min 0,000 mm 0,0 UV-I 9 W/m 10,5 C 7,4 C 19,3 km/h (3 Bft) 98,00 %
10.08.2016 19:44 11,4 C 94 % 1018,7 hPa 0,0 l/m 11,8 km/h (2 Bft) SW 220 0 min 0,000 mm 0,0 UV-I 9 W/m 10,5 C 8,2 C 19,3 km/h (3 Bft) 97,37 %
10.08.2016 19:46 11,4 C 94 % 1018,7 hPa 0,0 l/m 9,9 km/h (2 Bft) W-SW 238 0 min 0,000 mm 0,0 UV-I 7 W/m 10,5 C 9,2 C 16,1 km/h (3 Bft) 98,00 %
10.08.2016 19:48 11,4 C 94 % 1018,8 hPa 0,0 l/m 12,2 km/h (2 Bft) SW 227 0 min 0,000 mm 0,0 UV-I 7 W/m 10,5 C 8,0 C 19,3 km/h (3 Bft) 95,45 %
10.08.2016 19:50 11,4 C 93 % 1018,8 hPa 0,0 l/m 10,7 km/h (2 Bft) W-SW 246 0 min 0,000 mm 0,0 UV-I 8 W/m 10,3 C 8,8 C 16,1 km/h (3 Bft) 98,00 %
10.08.2016 19:52 11,5 C 94 % 1018,9 hPa 0,0 l/m 12,1 km/h (2 Bft) SW 220 0 min 0,000 mm 0,0 UV-I 9 W/m 10,6 C 8,2 C 17,7 km/h (3 Bft) 98,00 %
10.08.2016 19:54 11,5 C 94 % 1019,0 hPa 0,0 l/m 10,9 km/h (2 Bft) W-SW 238 0 min 0,000 mm 0,0 UV-I 7 W/m 10,6 C 8,8 C 19,3 km/h (3 Bft) 97,22 %
10.08.2016 19:56 11,5 C 94 % 1019,0 hPa 0,0 l/m 12,7 km/h (3 Bft) W-SW 246 0 min 0,000 mm 0,0 UV-I 7 W/m 10,6 C 7,9 C 19,3 km/h (3 Bft) 100,00 %
10.08.2016 19:58 11,6 C 93 % 1019,0 hPa 0,0 l/m 12,5 km/h (3 Bft) SW 234 0 min 0,000 mm 0,0 UV-I 7 W/m 10,5 C 8,1 C 19,3 km/h (3 Bft) 98,00 %
10.08.2016 20:00 11,6 C 93 % 1019,0 hPa 0,0 l/m 9,7 km/h (2 Bft) SW 227 0 min 0,000 mm 0,0 UV-I 7 W/m 10,5 C 9,5 C 14,5 km/h (3 Bft) 100,00 %
10.08.2016 20:02 11,6 C 93 % 1019,1 hPa 0,0 l/m 10,8 km/h (2 Bft) SW 217 0 min 0,026 mm 0,0 UV-I 5 W/m 10,5 C 8,9 C 17,7 km/h (3 Bft) 100,00 %
10.08.2016 20:04 11,6 C 93 % 1019,1 hPa 0,0 l/m 9,2 km/h (2 Bft) SW 235 0 min 0,000 mm 0,0 UV-I 5 W/m 10,5 C 9,8 C 14,5 km/h (3 Bft) 100,00 %
10.08.2016 20:06 11,6 C 93 % 1019,1 hPa 0,0 l/m 11,3 km/h (2 Bft) W-SW 256 0 min 0,000 mm 0,0 UV-I 4 W/m 10,5 C 8,7 C 16,1 km/h (3 Bft) 98,11 %
10.08.2016 20:08 11,6 C 93 % 1019,1 hPa 0,0 l/m 10,4 km/h (2 Bft) S-SW 209 0 min 0,000 mm 0,0 UV-I 0 W/m 10,5 C 9,1 C 14,5 km/h (3 Bft) 100,00 %
10.08.2016 20:10 11,6 C 93 % 1019,1 hPa 0,0 l/m 10,1 km/h (2 Bft) W-SW 252 0 min 0,000 mm 0,0 UV-I 0 W/m 10,5 C 9,3 C 16,1 km/h (3 Bft) 100,00 %
10.08.2016 20:12 11,6 C 93 % 1019,1 hPa 0,0 l/m 9,5 km/h (2 Bft) W 269 0 min 0,000 mm 0,0 UV-I 0 W/m 10,5 C 9,6 C 12,9 km/h (3 Bft) 100,00 %
10.08.2016 20:14 11,6 C 93 % 1019,2 hPa 0,0 l/m 7,7 km/h (2 Bft) W-SW 253 0 min 0,000 mm 0,0 UV-I 0 W/m 10,5 C 10,7 C 17,7 km/h (3 Bft) 100,00 %
10.08.2016 20:16 11,6 C 93 % 1019,2 hPa 0,0 l/m 6,6 km/h (2 Bft) S-SW 201 0 min 0,000 mm 0,0 UV-I 0 W/m 10,5 C 11,5 C 12,9 km/h (3 Bft) 100,00 %
10.08.2016 20:18 11,6 C 93 % 1019,3 hPa 0,0 l/m 6,9 km/h (2 Bft) W-SW 244 0 min 0,000 mm 0,0 UV-I 2 W/m 10,5 C 11,3 C 11,3 km/h (2 Bft) 100,00 %
10.08.2016 20:20 11,6 C 93 % 1019,3 hPa 0,0 l/m 10,0 km/h (2 Bft) W-SW 257 0 min 0,000 mm 0,0 UV-I 0 W/m 10,5 C 9,4 C 16,1 km/h (3 Bft) 100,00 %
10.08.2016 20:22 11,6 C 93 % 1019,4 hPa 0,0 l/m 9,6 km/h (2 Bft) W-NW 282 0 min 0,000 mm 0,0 UV-I 0 W/m 10,5 C 9,6 C 14,5 km/h (3 Bft) 100,00 %
10.08.2016 20:24 11,7 C 93 % 1019,4 hPa 0,0 l/m 8,8 km/h (2 Bft) W 259 0 min 0,000 mm 0,0 UV-I 0 W/m 10,6 C 10,1 C 14,5 km/h (3 Bft) 100,00 %
10.08.2016 20:26 11,7 C 93 % 1019,5 hPa 0,0 l/m 7,2 km/h (2 Bft) W 263 0 min 0,000 mm 0,0 UV-I 0 W/m 10,6 C 11,2 C 12,9 km/h (3 Bft) 97,73 %
10.08.2016 20:28 11,7 C 93 % 1019,5 hPa 0,0 l/m 7,5 km/h (2 Bft) W 276 0 min 0,000 mm 0,0 UV-I 0 W/m 10,6 C 11,0 C 12,9 km/h (3 Bft) 98,31 %
10.08.2016 20:30 11,7 C 93 % 1019,5 hPa 0,0 l/m 6,2 km/h (2 Bft) W-SW 258 0 min 0,000 mm 0,0 UV-I 0 W/m 10,6 C 11,7 C 9,7 km/h (2 Bft) 94,29 %
10.08.2016 20:32 11,7 C 93 % 1019,5 hPa 0,0 l/m 6,1 km/h (2 Bft) SW 230 0 min 0,000 mm 0,0 UV-I 0 W/m 10,6 C 11,7 C 11,3 km/h (2 Bft) 100,00 %
10.08.2016 20:34 11,7 C 93 % 1019,5 hPa 0,0 l/m 6,0 km/h (2 Bft) W 259 0 min 0,000 mm 0,0 UV-I 0 W/m 10,6 C 11,7 C 12,9 km/h (3 Bft) 100,00 %
10.08.2016 20:36 11,7 C 93 % 1019,5 hPa 0,0 l/m 9,3 km/h (2 Bft) W 268 0 min 0,000 mm 0,0 UV-I 0 W/m 10,6 C 9,9 C 14,5 km/h (3 Bft) 100,00 %
10.08.2016 20:38 11,7 C 93 % 1019,5 hPa 0,0 l/m 8,3 km/h (2 Bft) W-SW 253 0 min 0,000 mm 0,0 UV-I 0 W/m 10,6 C 10,5 C 14,5 km/h (3 Bft) 100,00 %
10.08.2016 20:40 11,7 C 93 % 1019,5 hPa 0,0 l/m 5,8 km/h (2 Bft) W 259 0 min 0,000 mm 0,0 UV-I 0 W/m 10,6 C 11,7 C 12,9 km/h (3 Bft) 100,00 %
10.08.2016 20:42 11,7 C 93 % 1019,5 hPa 0,0 l/m 9,3 km/h (2 Bft) SW 231 0 min 0,000 mm 0,0 UV-I 0 W/m 10,6 C 9,9 C 16,1 km/h (3 Bft) 100,00 %
10.08.2016 20:44 11,7 C 93 % 1019,5 hPa 0,0 l/m 7,4 km/h (2 Bft) SW 217 0 min 0,000 mm 0,0 UV-I 0 W/m 10,6 C 11,0 C 11,3 km/h (2 Bft) 100,00 %
10.08.2016 20:46 11,7 C 93 % 1019,5 hPa 0,0 l/m 5,3 km/h (1 Bft) SW 224 0 min 0,000 mm 0,0 UV-I 0 W/m 10,6 C 11,7 C 12,9 km/h (3 Bft) 100,00 %
10.08.2016 20:48 11,7 C 93 % 1019,5 hPa 0,0 l/m 6,8 km/h (2 Bft) W-SW 247 0 min 0,000 mm 0,0 UV-I 0 W/m 10,6 C 11,4 C 9,7 km/h (2 Bft) 97,56 %
10.08.2016 20:50 11,7 C 93 % 1019,5 hPa 0,0 l/m 7,6 km/h (2 Bft) W-SW 248 0 min 0,000 mm 0,0 UV-I 0 W/m 10,6 C 10,9 C 12,9 km/h (3 Bft) 98,18 %
10.08.2016 20:52 11,7 C 93 % 1019,5 hPa 0,0 l/m 4,3 km/h (1 Bft) SW 225 0 min 0,000 mm 0,0 UV-I 0 W/m 10,6 C 11,7 C 9,7 km/h (2 Bft) 100,00 %
10.08.2016 20:54 11,7 C 93 % 1019,4 hPa 0,0 l/m 6,2 km/h (2 Bft) S-SW 207 0 min 0,000 mm 0,0 UV-I 0 W/m 10,6 C 11,7 C 12,9 km/h (3 Bft) 100,00 %
10.08.2016 20:56 11,7 C 93 % 1019,4 hPa 0,0 l/m 5,5 km/h (1 Bft) W-SW 253 0 min 0,000 mm 0,0 UV-I 0 W/m 10,6 C 11,7 C 8,0 km/h (2 Bft) 100,00 %
10.08.2016 20:58 11,7 C 93 % 1019,5 hPa 0,0 l/m 8,2 km/h (2 Bft) SW 230 0 min 0,000 mm 0,0 UV-I 0 W/m 10,6 C 10,5 C 16,1 km/h (3 Bft) 100,00 %
10.08.2016 21:00 11,7 C 93 % 1019,5 hPa 0,0 l/m 8,3 km/h (2 Bft) W-SW 256 0 min 0,000 mm 0,0 UV-I 0 W/m 10,6 C 10,5 C 12,9 km/h (3 Bft) 100,00 %
10.08.2016 21:02 11,7 C 93 % 1019,5 hPa 0,0 l/m 7,9 km/h (2 Bft) W 261 0 min 0,000 mm 0,0 UV-I 0 W/m 10,6 C 10,7 C 11,3 km/h (2 Bft) 100,00 %
10.08.2016 21:04 11,7 C 92 % 1019,5 hPa 0,0 l/m 7,1 km/h (2 Bft) W-SW 241 0 min 0,000 mm 0,0 UV-I 0 W/m 10,4 C 11,2 C 11,3 km/h (2 Bft) 100,00 %
10.08.2016 21:06 11,7 C 92 % 1019,6 hPa 0,0 l/m 8,1 km/h (2 Bft) SW 235 0 min 0,000 mm 0,0 UV-I 0 W/m 10,4 C 10,6 C 14,5 km/h (3 Bft) 100,00 %
10.08.2016 21:08 11,7 C 92 % 1019,6 hPa 0,0 l/m 8,3 km/h (2 Bft) W-SW 252 0 min 0,000 mm 0,0 UV-I 0 W/m 10,4 C 10,5 C 12,9 km/h (3 Bft) 100,00 %
10.08.2016 21:10 11,7 C 92 % 1019,6 hPa 0,0 l/m 6,6 km/h (2 Bft) W-SW 254 0 min 0,000 mm 0,0 UV-I 0 W/m 10,4 C 11,6 C 11,3 km/h (2 Bft) 100,00 %
10.08.2016 21:12 11,7 C 92 % 1019,7 hPa 0,0 l/m 6,6 km/h (2 Bft) W-SW 258 0 min 0,000 mm 0,0 UV-I 0 W/m 10,4 C 11,6 C 11,3 km/h (2 Bft) 100,00 %
10.08.2016 21:14 11,7 C 92 % 1019,7 hPa 0,0 l/m 9,1 km/h (2 Bft) W 271 0 min 0,000 mm 0,0 UV-I 0 W/m 10,4 C 10,0 C 12,9 km/h (3 Bft) 100,00 %
10.08.2016 21:16 11,7 C 92 % 1019,7 hPa 0,0 l/m 6,0 km/h (2 Bft) W-SW 251 0 min 0,000 mm 0,0 UV-I 0 W/m 10,4 C 11,7 C 12,9 km/h (3 Bft) 100,00 %
10.08.2016 21:18 11,7 C 92 % 1019,7 hPa 0,0 l/m 4,7 km/h (1 Bft) W 264 0 min 0,000 mm 0,0 UV-I 0 W/m 10,4 C 11,7 C 6,4 km/h (2 Bft) 97,92 %
10.08.2016 21:20 11,7 C 92 % 1019,8 hPa 0,0 l/m 6,8 km/h (2 Bft) W-SW 257 0 min 0,000 mm 0,0 UV-I 0 W/m 10,4 C 11,4 C 14,5 km/h (3 Bft) 97,87 %
10.08.2016 21:22 11,7 C 92 % 1019,8 hPa 0,0 l/m 5,6 km/h (1 Bft) SW 236 0 min 0,000 mm 0,0 UV-I 0 W/m 10,4 C 11,7 C 12,9 km/h (3 Bft) 96,15 %
10.08.2016 21:24 11,7 C 92 % 1019,8 hPa 0,0 l/m 5,3 km/h (1 Bft) W-SW 253 0 min 0,000 mm 0,0 UV-I 0 W/m 10,4 C 11,7 C 9,7 km/h (2 Bft) 96,92 %
10.08.2016 21:26 11,7 C 92 % 1019,9 hPa 0,0 l/m 5,9 km/h (2 Bft) W-SW 248 0 min 0,000 mm 0,0 UV-I 0 W/m 10,4 C 11,7 C 12,9 km/h (3 Bft) 97,56 %
10.08.2016 21:28 11,7 C 92 % 1019,9 hPa 0,0 l/m 7,2 km/h (2 Bft) W-SW 243 0 min 0,000 mm 0,0 UV-I 0 W/m 10,4 C 11,2 C 11,3 km/h (2 Bft) 96,43 %
10.08.2016 21:30 11,7 C 92 % 1019,9 hPa 0,0 l/m 5,7 km/h (1 Bft) W-SW 248 0 min 0,000 mm 0,0 UV-I 0 W/m 10,4 C 11,7 C 11,3 km/h (2 Bft) 97,37 %
10.08.2016 21:32 11,7 C 91 % 1019,9 hPa 0,0 l/m 7,1 km/h (2 Bft) W-NW 292 0 min 0,000 mm 0,0 UV-I 0 W/m 10,3 C 11,2 C 12,9 km/h (3 Bft) 96,61 %
10.08.2016 21:34 11,7 C 92 % 1020,0 hPa 0,0 l/m 3,5 km/h (1 Bft) NW 305 0 min 0,000 mm 0,0 UV-I 0 W/m 10,4 C 11,7 C 6,4 km/h (2 Bft) 97,37 %
10.08.2016 21:36 11,7 C 92 % 1020,0 hPa 0,0 l/m 3,0 km/h (1 Bft) W 279 0 min 0,000 mm 0,0 UV-I 0 W/m 10,4 C 11,7 C 6,4 km/h (2 Bft) 97,87 %
10.08.2016 21:38 11,7 C 92 % 1020,1 hPa 0,0 l/m 3,2 km/h (1 Bft) W 274 0 min 0,000 mm 0,0 UV-I 0 W/m 10,4 C 11,7 C 4,8 km/h (1 Bft) 91,43 %
10.08.2016 21:40 11,7 C 92 % 1020,1 hPa 0,0 l/m 1,9 km/h (1 Bft) W-SW 252 0 min 0,000 mm 0,0 UV-I 0 W/m 10,4 C 11,7 C 4,8 km/h (1 Bft) 96,61 %
10.08.2016 21:42 11,6 C 92 % 1020,1 hPa 0,0 l/m 3,0 km/h (1 Bft) W 263 0 min 0,000 mm 0,0 UV-I 0 W/m 10,3 C 11,6 C 6,4 km/h (2 Bft) 96,23 %
10.08.2016 21:44 11,6 C 92 % 1020,1 hPa 0,0 l/m 3,0 km/h (1 Bft) W-SW 257 0 min 0,000 mm 0,0 UV-I 0 W/m 10,3 C 11,6 C 6,4 km/h (2 Bft) 93,62 %
10.08.2016 21:46 11,6 C 93 % 1020,1 hPa 0,0 l/m 5,1 km/h (1 Bft) W-SW 249 0 min 0,000 mm 0,0 UV-I 0 W/m 10,5 C 11,6 C 8,0 km/h (2 Bft) 97,56 %
10.08.2016 21:48 11,6 C 93 % 1020,1 hPa 0,0 l/m 3,4 km/h (1 Bft) W-NW 282 0 min 0,000 mm 0,0 UV-I 0 W/m 10,5 C 11,6 C 6,4 km/h (2 Bft) 98,11 %
10.08.2016 21:50 11,6 C 93 % 1020,1 hPa 0,0 l/m 4,1 km/h (1 Bft) W 276 0 min 0,000 mm 0,0 UV-I 0 W/m 10,5 C 11,6 C 9,7 km/h (2 Bft) 95,74 %
10.08.2016 21:52 11,6 C 93 % 1020,1 hPa 0,0 l/m 2,2 km/h (1 Bft) W 276 0 min 0,000 mm 0,0 UV-I 0 W/m 10,5 C 11,6 C 4,8 km/h (1 Bft) 96,30 %
10.08.2016 21:54 11,6 C 93 % 1020,2 hPa 0,0 l/m 1,6 km/h (1 Bft) W 276 0 min 0,000 mm 0,0 UV-I 0 W/m 10,5 C 11,6 C 3,2 km/h (1 Bft) 100,00 %
10.08.2016 21:56 11,5 C 93 % 1020,3 hPa 0,0 l/m 0,1 km/h (0 Bft) W 276 0 min 0,000 mm 0,0 UV-I 0 W/m 10,4 C 11,5 C 1,6 km/h (1 Bft) 95,92 %
10.08.2016 21:58 11,5 C 93 % 1020,3 hPa 0,0 l/m 1,6 km/h (1 Bft) NW 319 0 min 0,000 mm 0,0 UV-I 0 W/m 10,4 C 11,5 C 4,8 km/h (1 Bft) 100,00 %
10.08.2016 22:00 11,5 C 94 % 1020,3 hPa 0,0 l/m 1,6 km/h (1 Bft) NW 319 0 min 0,000 mm 0,0 UV-I 0 W/m 10,6 C 11,5 C 3,2 km/h (1 Bft) 100,00 %
10.08.2016 22:02 11,4 C 93 % 1020,3 hPa 0,0 l/m 2,7 km/h (1 Bft) NW 306 0 min 0,000 mm 0,0 UV-I 0 W/m 10,3 C 11,4 C 4,8 km/h (1 Bft) 100,00 %
10.08.2016 22:04 11,4 C 93 % 1020,3 hPa 0,0 l/m 1,7 km/h (1 Bft) NW 307 0 min 0,000 mm 0,0 UV-I 0 W/m 10,3 C 11,4 C 3,2 km/h (1 Bft) 96,00 %
10.08.2016 22:06 11,3 C 93 % 1020,3 hPa 0,0 l/m 0,7 km/h (0 Bft) NW 307 0 min 0,000 mm 0,0 UV-I 0 W/m 10,2 C 11,3 C 1,6 km/h (1 Bft) 100,00 %
10.08.2016 22:08 11,3 C 93 % 1020,3 hPa 0,0 l/m 0,4 km/h (0 Bft) NW 307 0 min 0,000 mm 0,0 UV-I 0 W/m 10,2 C 11,3 C 1,6 km/h (1 Bft) 100,00 %
10.08.2016 22:10 11,3 C 94 % 1020,4 hPa 0,0 l/m 1,5 km/h (1 Bft) NW 307 0 min 0,000 mm 0,0 UV-I 0 W/m 10,4 C 11,3 C 3,2 km/h (1 Bft) 97,87 %
10.08.2016 22:12 11,3 C 94 % 1020,4 hPa 0,0 l/m 2,1 km/h (1 Bft) NW 307 0 min 0,000 mm 0,0 UV-I 0 W/m 10,4 C 11,3 C 4,8 km/h (1 Bft) 98,00 %
10.08.2016 22:14 11,2 C 94 % 1020,4 hPa 0,0 l/m 2,1 km/h (1 Bft) W-NW 294 0 min 0,000 mm 0,0 UV-I 0 W/m 10,3 C 11,2 C 4,8 km/h (1 Bft) 100,00 %
10.08.2016 22:16 11,2 C 94 % 1020,5 hPa 0,0 l/m 2,7 km/h (1 Bft) W 267 0 min 0,000 mm 0,0 UV-I 0 W/m 10,3 C 11,2 C 6,4 km/h (2 Bft) 98,00 %
10.08.2016 22:18 11,2 C 95 % 1020,6 hPa 0,0 l/m 1,8 km/h (1 Bft) W 267 0 min 0,000 mm 0,0 UV-I 0 W/m 10,4 C 11,2 C 3,2 km/h (1 Bft) 100,00 %
10.08.2016 22:20 11,2 C 95 % 1020,6 hPa 0,0 l/m 2,7 km/h (1 Bft) W 267 0 min 0,000 mm 0,0 UV-I 0 W/m 10,4 C 11,2 C 4,8 km/h (1 Bft) 100,00 %
10.08.2016 22:22 11,2 C 95 % 1020,7 hPa 0,0 l/m 2,6 km/h (1 Bft) W 267 0 min 0,000 mm 0,0 UV-I 0 W/m 10,4 C 11,2 C 3,2 km/h (1 Bft) 98,04 %
10.08.2016 22:24 11,2 C 95 % 1020,7 hPa 0,0 l/m 1,9 km/h (1 Bft) W 267 0 min 0,000 mm 0,0 UV-I 0 W/m 10,4 C 11,2 C 3,2 km/h (1 Bft) 100,00 %
10.08.2016 22:26 11,2 C 95 % 1020,7 hPa 0,0 l/m 1,3 km/h (1 Bft) W 267 0 min 0,000 mm 0,0 UV-I 0 W/m 10,4 C 11,2 C 3,2 km/h (1 Bft) 100,00 %
10.08.2016 22:28 11,2 C 95 % 1020,7 hPa 0,0 l/m 1,1 km/h (1 Bft) W 267 0 min 0,000 mm 0,0 UV-I 0 W/m 10,4 C 11,2 C 1,6 km/h (1 Bft) 100,00 %
10.08.2016 22:30 11,2 C 95 % 1020,7 hPa 0,0 l/m 2,0 km/h (1 Bft) W 267 0 min 0,000 mm 0,0 UV-I 0 W/m 10,4 C 11,2 C 3,2 km/h (1 Bft) 100,00 %
10.08.2016 22:32 11,3 C 95 % 1020,7 hPa 0,0 l/m 1,9 km/h (1 Bft) W 267 0 min 0,000 mm 0,0 UV-I 0 W/m 10,5 C 11,3 C 3,2 km/h (1 Bft) 100,00 %
10.08.2016 22:34 11,3 C 95 % 1020,8 hPa 0,0 l/m 1,9 km/h (1 Bft) W 267 0 min 0,000 mm 0,0 UV-I 0 W/m 10,5 C 11,3 C 3,2 km/h (1 Bft) 100,00 %
10.08.2016 22:36 11,3 C 95 % 1020,7 hPa 0,0 l/m 0,9 km/h (0 Bft) W 267 0 min 0,000 mm 0,0 UV-I 0 W/m 10,5 C 11,3 C 1,6 km/h (1 Bft) 100,00 %
10.08.2016 22:38 11,3 C 95 % 1020,8 hPa 0,0 l/m 0,9 km/h (0 Bft) W 267 0 min 0,000 mm 0,0 UV-I 0 W/m 10,5 C 11,3 C 1,6 km/h (1 Bft) 100,00 %
10.08.2016 22:40 11,3 C 95 % 1020,8 hPa 0,0 l/m 0,7 km/h (0 Bft) W 267 0 min 0,000 mm 0,0 UV-I 0 W/m 10,5 C 11,3 C 1,6 km/h (1 Bft) 98,00 %
10.08.2016 22:42 11,3 C 95 % 1020,8 hPa 0,0 l/m 1,1 km/h (1 Bft) W 267 0 min 0,000 mm 0,0 UV-I 0 W/m 10,5 C 11,3 C 1,6 km/h (1 Bft) 100,00 %
10.08.2016 22:44 11,3 C 95 % 1020,8 hPa 0,0 l/m 1,8 km/h (1 Bft) W 267 0 min 0,000 mm 0,0 UV-I 0 W/m 10,5 C 11,3 C 3,2 km/h (1 Bft) 100,00 %
10.08.2016 22:46 11,3 C 95 % 1020,8 hPa 0,0 l/m 2,6 km/h (1 Bft) W 267 0 min 0,000 mm 0,0 UV-I 0 W/m 10,5 C 11,3 C 4,8 km/h (1 Bft) 100,00 %
10.08.2016 22:48 11,3 C 95 % 1020,8 hPa 0,0 l/m 3,1 km/h (1 Bft) SW 236 0 min 0,000 mm 0,0 UV-I 0 W/m 10,5 C 11,3 C 4,8 km/h (1 Bft) 100,00 %
10.08.2016 22:50 11,3 C 95 % 1020,8 hPa 0,0 l/m 3,5 km/h (1 Bft) SW 236 0 min 0,000 mm 0,0 UV-I 0 W/m 10,5 C 11,3 C 4,8 km/h (1 Bft) 97,87 %
10.08.2016 22:52 11,3 C 95 % 1020,8 hPa 0,0 l/m 3,6 km/h (1 Bft) SW 236 0 min 0,000 mm 0,0 UV-I 0 W/m 10,5 C 11,3 C 6,4 km/h (2 Bft) 100,00 %
10.08.2016 22:54 11,3 C 95 % 1020,9 hPa 0,0 l/m 3,8 km/h (1 Bft) SW 236 0 min 0,000 mm 0,0 UV-I 0 W/m 10,5 C 11,3 C 6,4 km/h (2 Bft) 98,11 %
10.08.2016 22:56 11,3 C 95 % 1020,8 hPa 0,0 l/m 3,3 km/h (1 Bft) S-SW 203 0 min 0,000 mm 0,0 UV-I 0 W/m 10,5 C 11,3 C 6,4 km/h (2 Bft) 100,00 %
10.08.2016 22:58 11,3 C 95 % 1020,9 hPa 0,0 l/m 3,7 km/h (1 Bft) S-SW 203 0 min 0,000 mm 0,0 UV-I 0 W/m 10,5 C 11,3 C 6,4 km/h (2 Bft) 100,00 %
10.08.2016 23:00 11,3 C 95 % 1020,8 hPa 0,0 l/m 4,2 km/h (1 Bft) S-SW 211 0 min 0,000 mm 0,0 UV-I 0 W/m 10,5 C 11,3 C 6,4 km/h (2 Bft) 100,00 %
10.08.2016 23:02 11,3 C 95 % 1020,9 hPa 0,0 l/m 3,5 km/h (1 Bft) S-SW 195 0 min 0,000 mm 0,0 UV-I 0 W/m 10,5 C 11,3 C 6,4 km/h (2 Bft) 100,00 %
10.08.2016 23:04 11,4 C 95 % 1020,8 hPa 0,0 l/m 1,0 km/h (0 Bft) S-SW 195 0 min 0,000 mm 0,0 UV-I 0 W/m 10,6 C 11,4 C 3,2 km/h (1 Bft) 98,00 %
10.08.2016 23:06 11,4 C 95 % 1020,8 hPa 0,0 l/m 0,3 km/h (0 Bft) S-SW 195 0 min 0,000 mm 0,0 UV-I 0 W/m 10,6 C 11,4 C 1,6 km/h (1 Bft) 100,00 %
10.08.2016 23:08 11,4 C 95 % 1020,8 hPa 0,0 l/m 0,1 km/h (0 Bft) S-SW 195 0 min 0,000 mm 0,0 UV-I 0 W/m 10,6 C 11,4 C 1,6 km/h (1 Bft) 98,00 %
10.08.2016 23:10 11,4 C 95 % 1020,8 hPa 0,0 l/m 1,7 km/h (1 Bft) S-SW 195 0 min 0,000 mm 0,0 UV-I 0 W/m 10,6 C 11,4 C 4,8 km/h (1 Bft) 97,87 %
10.08.2016 23:12 11,4 C 95 % 1020,8 hPa 0,0 l/m 1,8 km/h (1 Bft) S-SW 195 0 min 0,000 mm 0,0 UV-I 0 W/m 10,6 C 11,4 C 3,2 km/h (1 Bft) 100,00 %
10.08.2016 23:14 11,4 C 95 % 1020,8 hPa 0,0 l/m 0,8 km/h (0 Bft) S-SW 195 0 min 0,000 mm 0,0 UV-I 0 W/m 10,6 C 11,4 C 3,2 km/h (1 Bft) 98,08 %
10.08.2016 23:16 11,4 C 95 % 1020,8 hPa 0,0 l/m 2,6 km/h (1 Bft) S-SW 195 0 min 0,000 mm 0,0 UV-I 0 W/m 10,6 C 11,4 C 4,8 km/h (1 Bft) 100,00 %
10.08.2016 23:18 11,4 C 95 % 1020,8 hPa 0,0 l/m 3,6 km/h (1 Bft) S-SW 194 0 min 0,000 mm 0,0 UV-I 0 W/m 10,6 C 11,4 C 6,4 km/h (2 Bft) 97,22 %
10.08.2016 23:20 11,4 C 95 % 1020,8 hPa 0,0 l/m 4,5 km/h (1 Bft) S 188 0 min 0,000 mm 0,0 UV-I 0 W/m 10,6 C 11,4 C 6,4 km/h (2 Bft) 96,00 %
10.08.2016 23:22 11,4 C 95 % 1020,8 hPa 0,0 l/m 2,3 km/h (1 Bft) S 184 0 min 0,000 mm 0,0 UV-I 0 W/m 10,6 C 11,4 C 4,8 km/h (1 Bft) 96,00 %
10.08.2016 23:24 11,4 C 95 % 1020,8 hPa 0,0 l/m 1,8 km/h (1 Bft) S 184 0 min 0,000 mm 0,0 UV-I 0 W/m 10,6 C 11,4 C 3,2 km/h (1 Bft) 96,00 %
10.08.2016 23:26 11,4 C 95 % 1020,8 hPa 0,0 l/m 1,4 km/h (1 Bft) S 184 0 min 0,000 mm 0,0 UV-I 0 W/m 10,6 C 11,4 C 4,8 km/h (1 Bft) 100,00 %
10.08.2016 23:28 11,4 C 95 % 1020,8 hPa 0,0 l/m 1,6 km/h (1 Bft) S 184 0 min 0,000 mm 0,0 UV-I 0 W/m 10,6 C 11,4 C 3,2 km/h (1 Bft) 97,73 %
10.08.2016 23:30 11,4 C 95 % 1020,8 hPa 0,0 l/m 2,7 km/h (1 Bft) S 182 0 min 0,000 mm 0,0 UV-I 0 W/m 10,6 C 11,4 C 4,8 km/h (1 Bft) 96,36 %
10.08.2016 23:32 11,4 C 95 % 1020,8 hPa 0,0 l/m 0,2 km/h (0 Bft) S 182 0 min 0,000 mm 0,0 UV-I 0 W/m 10,6 C 11,4 C 1,6 km/h (1 Bft) 98,11 %
10.08.2016 23:34 11,4 C 95 % 1020,8 hPa 0,0 l/m 2,0 km/h (1 Bft) S 182 0 min 0,000 mm 0,0 UV-I 0 W/m 10,6 C 11,4 C 4,8 km/h (1 Bft) 95,74 %
10.08.2016 23:36 11,3 C 95 % 1020,9 hPa 0,0 l/m 4,1 km/h (1 Bft) S 185 0 min 0,000 mm 0,0 UV-I 0 W/m 10,5 C 11,3 C 6,4 km/h (2 Bft) 97,37 %
10.08.2016 23:38 11,3 C 95 % 1020,9 hPa 0,0 l/m 3,3 km/h (1 Bft) S 185 0 min 0,000 mm 0,0 UV-I 0 W/m 10,5 C 11,3 C 4,8 km/h (1 Bft) 98,00 %
10.08.2016 23:40 11,3 C 95 % 1020,9 hPa 0,0 l/m 4,0 km/h (1 Bft) S-SW 197 0 min 0,000 mm 0,0 UV-I 0 W/m 10,5 C 11,3 C 6,4 km/h (2 Bft) 98,00 %
10.08.2016 23:42 11,3 C 95 % 1020,9 hPa 0,0 l/m 4,1 km/h (1 Bft) S-SW 195 0 min 0,000 mm 0,0 UV-I 0 W/m 10,5 C 11,3 C 6,4 km/h (2 Bft) 97,37 %
10.08.2016 23:44 11,2 C 95 % 1020,9 hPa 0,0 l/m 4,4 km/h (1 Bft) S-SW 205 0 min 0,000 mm 0,0 UV-I 0 W/m 10,4 C 11,2 C 6,4 km/h (2 Bft) 96,43 %
10.08.2016 23:46 11,2 C 95 % 1021,0 hPa 0,0 l/m 4,4 km/h (1 Bft) S-SW 206 0 min 0,000 mm 0,0 UV-I 0 W/m 10,4 C 11,2 C 6,4 km/h (2 Bft) 97,37 %
10.08.2016 23:48 11,2 C 95 % 1021,0 hPa 0,0 l/m 4,5 km/h (1 Bft) S-SW 199 0 min 0,000 mm 0,0 UV-I 0 W/m 10,4 C 11,2 C 8,0 km/h (2 Bft) 98,00 %
10.08.2016 23:50 11,1 C 95 % 1021,0 hPa 0,0 l/m 6,3 km/h (2 Bft) S 182 0 min 0,000 mm 0,0 UV-I 0 W/m 10,3 C 11,1 C 9,7 km/h (2 Bft) 100,00 %
10.08.2016 23:52 11,1 C 95 % 1020,9 hPa 0,0 l/m 6,2 km/h (2 Bft) S 185 0 min 0,000 mm 0,0 UV-I 0 W/m 10,3 C 11,1 C 9,7 km/h (2 Bft) 98,00 %
10.08.2016 23:54 11,1 C 95 % 1020,9 hPa 0,0 l/m 6,6 km/h (2 Bft) S-SW 193 0 min 0,000 mm 0,0 UV-I 0 W/m 10,3 C 11,0 C 9,7 km/h (2 Bft) 100,00 %
10.08.2016 23:56 11,1 C 95 % 1020,9 hPa 0,0 l/m 5,9 km/h (2 Bft) SW 214 0 min 0,000 mm 0,0 UV-I 0 W/m 10,3 C 11,1 C 8,0 km/h (2 Bft) 100,00 %
10.08.2016 23:58 11,0 C 95 % 1021,0 hPa 0,0 l/m 5,3 km/h (1 Bft) S-SW 200 0 min 0,000 mm 0,0 UV-I 0 W/m 10,2 C 11,0 C 9,7 km/h (2 Bft) 100,00 %
_ Min-Zeit 23:58 16:42 05:18 - 21:56 - - - - - - 18:05 19:08 05:34 21:38
Minimum _ 11,0 C 77 % 1016,6 hPa - 0,1 km/h (0 Bft) - - - - - - 10,1 C 7,2 C 1,6 km/h (1 Bft) 91,43 %
_ Max-Zeit 15:42 00:00 23:46 00:16 17:00 - - 15:36 16:00 12:46 15:40 00:00 15:56 17:00 00:00
Maximum _ 15,7 C 96 % 1021,0 hPa 0,2 l/m 25,5 km/h
W-SW (4 Bft)
- - 2 min 0,152 mm 2,2 UV-I 425 W/m 13,3 C 15,7 C 51,5 km/h
W-SW (7 Bft)
100,00 %
Durchschnitt _ 12,6 C 93 % 1017,9 hPa #11,6 l/m 6,9 km/h (2 Bft) W-SW - #10 min. #0,864 mm 1,2 UV-I 107 W/m 11,5 C 11,7 C 11,5 km/h (2 Bft) 98,73 %